GFSMA_sfc_rhum_000.txt.gz
RH
72 68 65 62 61 58 59 62 60 58 59 51 48 44 46 49 48 50 64 68 65 57 53 54 56 60 63 68 72 74 76 78 78 84 88 87 84 86 86 84 83 83 84
68 67 65 63 61 59 60 58 58 62 62 55 50 47 45 47 46 50 51 69 68 66 62 57 57 59 60 64 69 72 73 74 77 80 86 89 86 87 87 86 85 85 85
62 65 67 66 64 63 60 62 64 61 64 56 53 52 51 52 51 49 53 54 62 73 76 71 65 63 63 61 62 63 64 69 72 75 84 89 89 87 88 88 88 86 86
54 63 66 68 67 70 66 66 65 63 62 62 62 59 49 48 48 48 48 50 51 43 74 79 76 69 62 58 57 55 56 60 64 68 75 85 88 91 90 89 88 87 88
58 64 64 69 70 68 68 67 61 66 66 65 57 54 58 53 48 37 42 48 52 48 52 71 78 74 71 64 55 53 52 54 58 62 68 76 86 89 94 92 90 89 89
54 60 61 68 70 66 66 69 74 66 67 64 46 46 57 52 51 56 47 42 43 43 47 47 71 73 77 69 58 51 49 50 52 54 60 67 75 82 89 92 93 92 90
52 59 60 60 61 62 66 65 64 65 61 68 63 60 57 58 65 58 47 41 42 41 41 46 61 57 61 74 65 52 46 47 50 53 56 60 67 77 82 84 91 92 92
50 43 57 56 59 63 65 69 73 66 60 59 64 59 59 51 57 53 50 52 46 40 39 40 48 47 48 60 67 60 49 49 50 53 54 60 67 75 71 73 77 83 91
46 49 54 58 62 63 64 66 67 67 68 61 64 68 64 63 56 53 52 49 67 67 81 66 43 42 53 50 57 63 69 65 55 50 51 58 63 66 67 67 67 69 79
52 46 50 59 63 66 66 69 52 72 72 69 70 60 70 75 89 81 68 62 58 69 83 77 71 56 48 53 60 66 74 77 70 56 52 54 60 61 66 62 65 68 75
53 50 52 59 66 64 67 71 69 74 77 82 79 77 78 71 74 89 81 79 70 73 80 92 86 87 69 47 51 70 72 77 76 73 66 56 56 59 60 64 63 66 71
54 55 53 62 66 68 66 68 77 77 86 86 81 79 84 78 74 75 78 81 85 80 79 85 96 95 90 72 52 73 79 81 74 72 72 70 62 59 58 57 59 62 66
59 58 60 63 64 64 65 65 73 78 80 86 83 85 86 84 83 74 79 83 84 76 89 86 88 89 80 90 82 77 76 78 71 76 74 75 73 74 72 70 67 64 62
61 59 63 63 63 67 70 71 77 79 80 85 76 78 82 86 86 89 91 94 94 94 87 84 81 84 89 84 80 74 69 74 76 81 78 74 75 62 70 73 74 70 68
48 64 68 64 65 68 72 76 80 80 83 85 87 87 85 84 86 82 85 85 90 94 81 64 82 81 86 85 83 70 59 72 77 85 78 66 71 66 65 62 63 65 65
58 61 67 69 69 69 68 70 79 77 78 84 80 81 86 74 70 71 76 81 81 81 85 68 52 49 42 37 61 66 56 74 79 80 77 64 64 64 66 65 67 68 67
61 60 61 63 62 64 82 84 84 78 72 72 74 71 71 67 69 64 61 55 56 62 65 52 49 47 50 56 44 42 51 66 72 76 73 71 73 71 70 67 66 63 65
62 58 60 60 64 67 79 85 83 79 74 74 68 66 64 50 58 56 53 52 54 55 57 55 54 51 51 49 49 54 42 31 48 66 74 73 72 74 74 73 71 72 75
58 56 49 50 47 50 49 52 53 55 56 54 53 54 53 56 60 58 58 58 55 44 54 56 59 56 55 53 49 50 48 55 43 53 79 78 77 77 80 77 73 73 73
49 46 46 47 50 44 41 51 49 57 58 53 56 54 52 52 57 63 60 66 55 62 58 58 56 54 56 52 54 52 60 56 57 33 44 57 75 76 76 74 76 75 77
44 44 43 48 50 45 50 65 59 60 60 57 57 49 50 55 61 62 47 61 65 67 67 63 62 59 56 59 62 60 65 68 66 65 66 66 64 70 69 77 66 74 78
45 47 50 51 55 36 69 69 70 69 60 59 61 55 52 56 56 64 68 67 70 70 63 64 62 64 61 60 63 70 79 81 81 69 74 77 71 73 68 66 65 75 78
52 56 55 54 57 61 67 69 69 65 62 60 59 58 54 44 61 55 69 72 70 78 78 75 71 72 70 64 63 70 76 81 84 77 76 80 75 80 71 49 79 71 70
54 55 59 57 60 53 71 70 69 73 66 65 64 62 62 63 67 65 67 77 73 69 68 65 76 78 71 65 70 75 81 80 86 83 77 85 82 86 81 80 71 73 73
55 58 58 67 71 69 70 79 82 83 80 75 68 69 69 69 66 66 74 84 83 74 62 68 71 75 76 75 75 79 86 88 94 90 79 76 81 92 94 95 92 74 73
50 64 72 74 72 76 76 72 79 91 87 80 79 73 67 72 89 88 96 96 96 85 76 82 80 72 66 80 88 89 90 89 83 85 66 70 74 83 91 93 90 86 95

GFSMA_sfc_rhum_003.txt.gz
RH
73 73 73 68 67 67 67 69 69 65 67 61 55 49 44 46 49 54 68 80 74 67 55 53 57 60 64 71 79 80 79 79 81 85 85 88 86 85 86 87 87 84 83
75 74 71 70 67 68 68 64 62 64 66 66 58 51 45 44 46 51 59 77 77 71 65 55 55 57 60 62 74 76 77 78 81 84 85 90 87 87 87 89 88 86 83
62 66 72 75 74 74 71 68 68 73 74 71 69 58 52 49 48 48 53 67 70 76 73 71 66 62 62 63 68 73 75 80 78 78 85 87 89 87 88 88 88 87 86
66 69 67 68 76 77 74 71 72 73 73 76 69 65 62 54 49 52 47 58 63 55 71 76 77 74 73 66 63 64 67 70 71 74 80 87 89 90 89 88 88 87 87
60 67 69 73 75 77 78 77 75 82 81 76 62 57 62 66 59 42 47 47 59 56 56 70 77 79 79 73 60 58 56 60 66 67 72 79 83 89 91 90 90 90 90
58 61 61 63 66 67 71 72 73 70 74 68 52 53 72 71 75 74 65 52 52 51 51 54 70 73 83 76 68 57 54 53 56 61 68 71 78 85 90 92 92 92 89
46 52 58 66 68 66 68 68 76 72 68 73 72 56 68 68 65 67 77 74 62 58 53 54 59 68 72 78 73 59 54 51 52 55 59 65 72 82 85 90 92 92 93
54 48 61 66 64 66 64 65 66 76 73 73 76 73 76 63 65 61 67 71 79 80 75 61 53 60 62 72 74 69 56 53 50 53 58 65 72 76 76 75 80 86 90
57 56 60 66 66 71 69 70 74 68 77 76 74 85 94 93 83 76 66 60 75 80 83 85 80 66 55 56 65 73 76 70 62 53 55 57 63 67 73 71 71 72 75
57 56 57 62 71 73 73 77 64 78 84 88 87 71 86 86 95 92 73 64 63 68 89 92 89 84 81 77 70 75 82 77 72 62 53 52 54 63 67 67 68 68 69
58 57 60 65 72 77 73 78 83 85 90 91 90 90 88 84 79 79 74 82 68 72 87 91 88 94 89 87 89 79 82 78 76 67 61 60 58 56 59 69 68 67 68
64 57 57 65 69 72 75 79 86 85 88 83 79 82 85 86 93 91 88 78 83 81 73 80 89 90 93 92 85 93 85 84 78 77 73 71 71 67 64 59 64 63 65
62 61 69 73 74 71 76 79 85 88 90 92 91 90 92 91 89 93 90 73 86 81 91 87 91 87 87 94 91 91 90 88 80 74 75 65 69 71 74 78 68 65 64
66 69 71 71 71 73 78 81 87 86 84 92 91 91 91 83 93 94 96 96 90 86 93 82 80 88 89 95 94 90 89 91 86 82 75 68 76 61 66 69 73 79 73
56 73 76 76 76 77 78 77 85 88 89 92 94 94 92 88 92 90 92 90 95 97 83 80 82 69 74 85 86 82 92 90 87 83 83 64 72 65 64 62 64 66 70
69 71 71 72 72 72 77 86 92 90 92 92 84 92 92 93 89 94 95 96 85 84 88 74 64 60 53 42 64 69 68 84 85 82 82 68 64 64 63 65 66 65 65
69 68 66 68 70 73 78 89 92 92 90 88 88 87 83 76 76 91 90 83 82 82 80 58 62 57 53 54 50 52 64 63 84 85 78 69 71 72 71 66 62 60 63
63 66 64 59 60 61 66 79 91 90 85 77 72 72 69 50 64 64 66 64 61 58 66 67 65 60 55 52 56 52 45 33 63 72 76 72 76 80 78 76 73 71 70
58 55 55 56 56 59 59 62 65 68 69 67 68 67 61 60 61 62 68 75 71 54 66 65 72 65 57 53 50 51 46 52 41 61 77 78 74 77 78 78 76 73 74
50 49 48 51 57 57 60 62 60 68 69 64 68 66 62 60 63 70 65 72 64 70 68 72 70 68 66 56 61 68 68 63 60 44 52 73 80 81 82 78 80 76 75
49 44 46 53 57 56 54 71 66 70 70 70 70 61 59 61 60 66 61 70 72 73 71 70 75 71 71 72 69 77 80 77 69 77 74 72 74 77 77 80 79 82 85
45 47 53 58 61 49 73 69 71 71 66 66 70 63 66 63 68 68 81 78 78 77 73 76 73 76 74 74 75 78 78 81 84 76 80 82 77 74 75 74 80 79 76
51 54 60 63 63 74 70 67 65 69 71 73 74 72 65 51 68 69 70 71 71 71 75 90 86 84 80 78 76 77 81 85 88 83 85 88 84 82 76 58 71 64 64
49 59 66 70 72 63 75 72 71 80 80 78 73 69 71 77 85 72 71 77 81 80 77 70 84 85 86 81 78 73 92 96 93 90 86 93 85 90 81 81 75 75 72
59 65 72 75 77 77 77 80 89 94 90 86 75 74 71 70 69 77 87 92 92 85 70 67 68 83 92 90 82 92 97 96 92 82 90 91 90 94 95 93 89 77 76
57 73 76 78 79 87 81 76 88 98 97 93 84 76 73 76 94 92 92 97 96 82 81 86 85 78 71 72 66 83 88 96 94 96 73 74 72 90 97 96 94 91 95

GFSMA_sfc_rhum_006.txt.gz
RH
76 77 76 74 74 73 77 76 82 73 70 70 68 63 56 50 49 55 64 74 83 77 64 54 52 55 59 70 76 81 80 81 80 83 86 88 86 88 84 88 89 88 87
80 79 75 75 76 81 80 75 73 72 74 75 73 70 61 52 46 49 57 66 83 82 74 61 55 54 55 60 70 77 78 80 81 82 86 87 84 84 87 88 88 89 86
71 75 75 74 78 80 77 78 75 78 79 73 76 74 72 62 58 51 52 56 69 84 79 72 69 66 60 57 66 72 77 81 81 80 85 88 85 86 90 91 89 89 87
67 70 68 68 75 76 76 75 77 75 76 79 81 76 75 70 64 59 58 57 58 60 74 77 73 71 70 63 57 60 66 73 76 76 82 86 86 88 90 89 88 88 87
60 61 62 62 69 70 72 74 72 81 79 71 59 57 68 74 76 64 62 56 63 61 62 67 75 75 75 73 62 58 60 61 63 68 74 82 84 87 90 90 91 90 90
58 59 61 66 70 69 69 69 68 69 74 80 49 57 70 71 71 80 83 70 72 73 70 61 65 72 80 77 74 61 56 56 56 60 64 70 78 83 88 91 91 89 86
63 64 71 73 74 70 70 69 72 76 71 76 73 58 69 63 70 75 84 80 76 70 66 63 70 74 78 80 78 65 56 54 54 55 60 68 74 83 86 91 90 89 90
60 55 68 68 75 72 72 75 79 78 79 77 79 87 65 56 65 70 81 73 90 82 72 65 71 76 80 83 83 76 63 56 54 55 62 67 73 77 79 80 83 87 88
61 62 64 70 73 76 78 78 81 83 87 87 90 89 93 93 94 80 74 68 79 84 89 91 71 59 77 86 77 79 84 80 70 63 62 66 65 64 70 74 74 75 79
61 59 62 69 76 78 77 82 78 89 87 92 92 77 88 87 83 82 76 64 72 69 88 95 81 74 83 84 83 91 91 87 82 70 64 57 57 57 62 68 72 71 71
61 59 68 68 70 76 80 83 90 89 93 93 95 94 90 90 81 89 80 78 70 78 85 91 89 88 77 89 92 90 91 92 87 70 62 56 57 59 59 61 67 68 69
64 69 65 74 75 82 83 87 86 90 91 93 94 93 95 94 94 94 86 91 79 79 82 87 92 93 87 89 85 84 88 92 93 85 77 72 70 69 66 67 62 63 67
65 72 75 80 81 83 82 83 86 84 85 86 89 91 92 94 93 93 93 93 94 80 92 89 87 86 80 91 91 90 87 93 91 90 90 80 68 68 68 72 77 76 66
76 80 79 76 75 78 80 83 88 90 90 93 93 95 97 97 97 97 94 98 93 82 87 88 82 84 87 80 82 86 84 93 94 95 94 89 81 68 62 62 65 72 77
70 76 77 73 74 74 78 84 89 90 92 92 94 94 95 96 95 95 93 97 99 96 92 86 87 75 80 84 78 80 84 94 94 90 92 92 86 83 70 60 61 64 68
72 70 69 70 71 74 78 86 89 90 92 94 89 94 94 94 90 88 89 93 96 99 97 81 72 62 62 49 56 69 71 76 90 96 92 90 81 75 66 62 64 62 62
70 64 64 63 61 65 71 78 84 89 93 89 82 76 75 73 79 77 77 74 86 91 98 81 71 62 60 58 52 53 62 71 83 84 86 89 83 76 74 67 61 58 56
68 63 61 58 59 60 64 68 78 76 70 71 72 74 71 52 66 66 69 70 72 68 74 88 69 64 58 58 59 60 52 42 74 69 88 89 87 82 78 76 74 70 64
59 56 54 54 55 60 61 68 70 70 69 70 71 73 72 68 67 66 69 74 73 59 67 68 66 68 65 61 57 65 62 63 47 62 63 86 86 79 82 76 76 75 73
80 61 51 52 59 59 64 63 64 69 69 66 71 73 73 70 70 74 73 76 70 81 76 72 75 72 72 62 69 74 78 74 67 53 62 67 74 79 85 86 84 82 78
78 55 50 54 62 62 60 70 67 68 68 68 70 68 64 64 59 61 71 98 97 93 80 76 76 76 73 74 72 79 77 78 73 83 75 72 77 75 77 78 77 81 81
55 50 54 63 66 53 73 71 68 71 67 67 74 70 72 65 67 69 72 70 70 88 86 95 79 77 75 75 80 79 82 82 75 84 84 82 77 76 75 76 82 78 76
56 58 62 66 72 73 75 72 72 71 74 78 81 78 71 57 72 80 80 73 72 71 71 84 91 89 86 80 80 85 86 88 90 83 90 92 81 80 76 60 76 68 66
60 61 75 75 75 68 74 78 78 90 89 88 84 83 79 76 74 71 73 87 83 83 79 74 83 86 89 86 84 78 84 90 95 93 89 98 88 89 82 80 72 75 74
61 74 76 76 85 91 80 78 84 97 93 89 79 75 73 80 79 80 92 90 87 76 65 67 74 78 82 85 88 95 94 92 91 83 90 92 90 96 95 95 90 73 76
70 74 81 86 81 87 76 69 74 99 96 90 84 74 74 73 77 82 94 96 96 81 81 83 87 82 75 77 68 76 92 97 98 97 83 85 80 90 95 97 96 96 97

GFSMA_sfc_rhum_009.txt.gz
RH
81 82 81 80 80 81 81 78 77 74 74 75 76 75 72 66 58 55 61 66 72 67 59 56 57 56 60 66 73 78 76 77 79 81 85 88 87 86 84 80 81 86 83
83 83 79 76 78 84 84 81 80 80 81 80 71 73 76 74 65 57 55 59 68 72 73 63 58 57 56 62 68 75 76 79 77 78 83 88 89 87 87 85 81 79 85
78 75 73 70 73 79 72 73 75 77 72 70 69 71 71 70 71 67 64 59 62 68 74 76 72 71 67 64 66 70 75 80 80 77 80 86 88 89 88 87 86 80 84
68 70 65 66 72 77 76 73 76 68 70 76 74 67 67 73 70 73 74 72 71 66 69 69 69 72 73 69 63 62 63 70 79 76 79 84 86 88 88 85 83 86 80
64 67 69 76 79 76 77 75 70 74 75 74 62 62 68 72 70 71 80 77 75 70 63 63 71 72 70 69 67 62 57 60 68 67 72 78 82 85 88 88 85 85 90
68 69 74 76 79 74 73 74 73 74 75 80 56 58 65 64 69 91 87 73 72 71 66 62 71 71 74 73 70 68 62 57 56 58 64 69 75 80 85 87 87 85 85
59 67 72 73 75 72 75 76 80 79 73 81 79 64 71 59 64 85 89 88 78 74 66 65 67 63 66 73 72 71 70 63 58 58 64 68 72 78 82 85 87 89 86
63 58 68 72 76 75 75 79 83 83 85 90 94 95 85 69 82 72 82 74 84 86 76 65 70 55 55 84 84 74 73 77 70 63 65 70 74 76 78 75 77 81 84
62 65 69 77 80 81 84 87 90 90 92 91 92 94 95 96 96 83 69 76 82 83 88 88 78 63 67 80 90 90 84 83 74 77 69 69 74 69 68 68 71 75 76
64 67 72 78 82 85 88 90 88 96 96 98 96 82 91 94 97 88 79 64 78 69 87 91 87 82 82 79 86 88 89 88 82 70 72 64 67 61 59 60 66 70 73
72 70 72 70 75 83 87 87 90 90 92 94 96 96 93 92 93 91 91 79 79 78 78 92 88 92 87 85 92 90 90 90 87 79 70 65 58 56 58 60 62 66 69
74 73 67 75 82 83 85 87 88 86 89 92 94 95 95 91 94 95 97 82 85 81 85 88 92 91 89 89 73 71 88 89 87 83 83 79 70 68 69 67 68 66 64
78 76 79 82 83 82 82 84 85 88 91 92 93 95 96 97 98 90 92 86 96 80 89 92 91 88 77 90 83 76 80 90 90 86 82 84 82 76 66 67 68 73 77
82 82 82 76 74 76 81 86 86 88 88 90 88 92 96 96 97 97 92 96 92 92 89 80 77 84 86 83 84 77 85 89 92 89 90 88 82 83 81 60 60 67 75
75 82 74 74 79 76 76 83 85 84 90 91 93 94 96 95 94 95 95 93 96 94 80 86 91 77 77 79 76 78 82 77 91 94 94 95 89 87 88 85 64 61 68
68 69 78 84 68 65 69 80 85 86 90 94 93 93 84 89 84 89 86 90 94 95 92 90 83 75 61 45 51 73 70 76 79 89 87 91 92 92 88 86 82 63 64
72 73 73 66 62 61 66 70 74 78 89 88 78 76 75 74 80 83 85 82 79 84 89 78 80 69 57 60 54 63 64 69 91 79 80 83 91 96 90 89 85 74 64
71 75 77 76 67 61 63 67 70 79 74 72 72 74 72 52 72 76 79 72 75 72 80 81 85 72 61 56 59 62 51 46 64 68 82 84 88 92 95 86 78 76 72
79 84 82 73 64 60 62 67 73 72 69 70 71 72 72 73 75 73 72 77 78 70 76 78 72 74 70 65 60 67 61 68 48 58 75 79 85 88 90 86 82 76 73
90 91 88 70 62 60 62 67 67 68 70 68 71 74 73 74 73 76 72 90 88 95 95 87 79 78 72 67 75 72 73 73 70 51 61 76 79 77 81 85 84 81 76
88 92 74 59 63 62 63 67 65 71 72 73 72 69 69 69 64 61 63 82 82 92 87 90 91 77 70 74 70 80 76 79 74 81 81 75 74 81 70 74 78 81 83
94 61 71 66 72 58 73 69 71 76 71 71 78 72 73 72 70 64 68 70 71 88 93 89 85 94 91 78 79 81 82 85 80 81 90 88 75 72 71 70 76 79 82
78 74 65 70 70 71 74 74 80 78 84 88 88 84 75 59 69 73 73 72 72 74 77 85 90 88 83 81 81 86 88 87 88 82 92 94 90 81 75 60 69 74 73
92 70 76 76 78 78 80 82 86 82 92 89 79 79 81 78 81 73 90 86 88 77 76 80 88 85 85 84 85 79 82 86 89 94 93 99 93 92 82 79 71 72 77
81 78 78 82 87 91 72 74 75 91 89 83 75 76 73 74 76 84 94 92 85 79 65 65 66 69 80 90 87 94 98 92 91 78 95 93 92 97 97 95 86 71 75
77 78 77 86 74 82 72 65 68 99 96 90 86 77 77 74 79 74 87 93 95 78 77 82 85 83 79 77 70 80 94 97 96 98 89 90 83 89 94 97 98 96 98

GFSMA_sfc_rhum_012.txt.gz
RH
86 87 83 82 81 84 84 81 80 78 78 76 74 77 77 76 73 70 70 67 68 64 63 62 59 57 60 66 72 76 77 72 73 75 83 87 89 86 85 82 83 84 81
85 83 78 76 77 84 80 81 81 80 78 74 66 71 71 71 70 73 71 72 71 70 70 70 70 70 68 64 69 73 75 77 77 75 80 85 89 91 88 86 85 83 83
82 77 73 71 76 82 78 75 75 72 70 67 66 66 65 69 71 78 78 75 75 70 65 63 65 69 72 70 68 68 71 76 79 77 80 83 87 89 90 88 87 85 80
71 72 74 80 80 78 75 76 80 69 73 76 72 67 67 67 68 81 80 79 77 64 62 62 63 62 61 66 72 70 67 68 71 76 80 82 85 87 89 90 88 87 86
71 73 73 76 75 75 77 74 76 75 77 77 66 65 66 69 74 75 80 77 74 73 64 60 62 63 60 59 58 63 68 68 66 68 73 77 80 83 87 88 88 86 86
64 66 67 74 73 73 77 77 74 75 77 83 63 61 70 68 80 91 83 69 72 74 68 64 64 60 57 55 61 62 61 66 68 66 66 69 74 78 84 87 88 88 86
60 66 72 74 76 76 79 81 82 82 78 91 85 68 78 67 81 85 83 80 77 76 75 67 65 62 54 60 68 71 67 61 66 72 70 68 71 78 83 82 80 83 86
64 64 75 80 79 78 83 88 88 85 85 94 95 95 85 78 79 69 81 74 80 82 70 61 69 68 64 68 77 68 78 78 69 66 65 74 77 73 79 77 74 76 80
68 71 77 79 80 81 88 92 91 90 92 92 94 94 96 93 93 80 69 78 79 79 82 79 74 70 68 74 72 82 80 86 79 69 64 65 70 72 74 71 68 70 74
71 70 72 77 80 85 86 91 86 91 92 94 94 81 91 96 96 87 78 72 76 71 83 87 84 80 76 78 72 74 78 89 84 73 68 65 65 66 69 65 61 63 68
67 68 71 77 82 86 86 87 88 84 88 90 93 95 94 94 92 90 85 75 67 71 80 87 90 88 82 83 85 81 73 80 89 78 74 68 69 62 57 59 59 62 65
76 75 74 83 86 86 86 87 86 85 90 90 93 93 97 95 94 89 92 87 86 74 72 86 90 89 89 88 70 69 74 83 91 85 80 76 66 64 67 69 67 67 66
83 86 83 85 86 81 76 77 80 82 85 84 88 90 95 94 97 98 95 80 91 76 90 83 88 82 72 87 83 77 73 84 88 86 82 80 77 71 64 62 65 68 72
88 86 85 78 78 78 78 82 81 84 86 83 83 88 93 94 96 96 97 98 91 87 84 80 79 76 84 81 74 63 73 82 87 89 89 91 88 83 75 65 62 60 69
82 87 82 83 85 81 82 83 88 80 84 87 90 92 95 94 92 87 94 90 96 90 68 69 85 79 77 80 69 73 78 82 91 90 88 86 84 86 89 79 77 68 62
81 76 80 83 82 80 76 78 81 81 86 90 91 94 82 83 83 86 85 86 87 87 84 71 60 74 72 61 56 66 69 67 85 86 86 87 88 88 91 92 86 78 65
77 79 79 80 73 73 76 76 76 75 81 90 78 74 73 73 77 80 79 75 75 78 82 65 63 62 68 73 58 60 60 65 77 80 85 87 88 89 89 94 94 87 72
78 76 80 81 81 81 74 72 71 73 81 73 71 72 72 56 70 71 72 70 70 70 78 85 73 71 71 71 62 64 54 47 59 73 80 84 87 89 90 95 93 92 82
80 83 83 87 87 74 65 68 73 76 71 68 70 73 72 73 74 74 71 74 74 71 84 92 88 75 70 70 65 60 64 62 44 48 72 78 81 88 89 91 95 86 82
88 86 89 92 77 63 64 69 69 67 68 70 74 74 75 74 73 74 74 73 73 84 78 81 84 81 78 68 68 69 66 68 58 41 57 76 75 73 84 92 93 88 82
85 87 87 65 66 64 62 68 63 69 73 75 75 72 71 73 72 68 63 72 75 84 83 84 80 73 84 81 66 66 68 67 66 65 72 68 70 76 78 82 86 86 86
94 94 76 73 70 60 71 70 75 84 78 82 85 82 80 72 70 67 69 69 69 78 86 90 81 82 78 82 90 89 71 75 64 70 77 75 72 66 72 78 75 82 84
91 83 77 71 75 77 75 76 86 87 86 85 84 76 68 57 71 73 78 74 75 84 91 96 91 84 83 82 69 74 79 78 73 67 75 77 78 74 65 59 68 71 74
94 91 77 78 83 85 78 79 80 82 84 82 76 75 75 76 76 70 82 92 77 77 75 70 74 81 82 86 76 73 75 75 78 76 85 89 80 80 71 71 69 69 74
86 78 78 81 87 80 73 67 71 89 87 82 72 74 73 76 76 79 85 88 79 71 63 68 67 68 69 71 82 93 96 90 85 68 84 84 81 87 84 82 79 68 74
70 78 80 83 70 81 68 63 68 94 97 88 87 77 78 74 73 76 94 92 93 80 75 80 81 77 77 78 74 73 84 95 93 90 76 85 77 76 82 82 86 83 82

GFSMA_sfc_rhum_015.txt.gz
RH
65 60 61 55 54 51 50 50 50 49 49 46 46 45 41 42 40 33 38 75 73 70 67 67 68 70 70 70 70 69 72 75 72 71 78 84 89 89 85 84 84 83 80
69 61 55 49 49 50 50 48 51 45 44 42 42 45 42 40 43 43 35 45 66 64 64 64 63 63 63 66 70 70 68 69 77 74 76 82 86 89 90 88 87 86 87
62 56 52 52 54 52 52 49 48 45 43 38 39 36 37 39 40 50 45 43 41 60 62 62 61 60 59 59 59 62 68 70 70 76 78 80 84 88 90 90 89 87 86
60 61 54 56 54 50 52 48 44 40 42 41 40 36 38 33 42 55 47 44 42 38 48 60 59 58 57 56 57 58 59 63 67 70 75 79 82 86 88 91 89 87 86
60 56 52 55 56 49 50 45 45 47 44 40 30 33 32 28 42 44 50 49 51 46 40 48 54 52 57 55 55 56 58 58 60 66 71 74 77 80 85 88 89 87 85
52 50 50 55 49 47 49 46 48 44 46 47 30 33 33 35 46 48 45 42 46 49 44 45 41 38 52 55 57 57 60 59 59 59 64 73 74 77 82 86 86 84 84
48 52 48 50 50 49 53 52 46 47 39 50 40 34 33 47 52 43 45 44 46 43 47 44 40 37 34 50 53 61 61 63 65 63 60 65 72 80 79 83 80 78 80
49 48 54 50 52 48 56 57 53 44 47 59 47 40 34 31 37 44 40 44 50 48 46 46 49 47 43 40 47 61 66 65 66 69 67 64 64 69 77 78 79 76 75
46 50 54 52 53 54 55 62 62 61 51 53 67 50 45 40 49 39 44 42 53 47 46 46 47 47 50 48 51 50 58 69 66 69 72 70 63 64 72 77 79 74 71
48 45 51 56 61 60 64 61 57 58 52 47 43 49 53 55 50 47 37 41 44 42 49 49 48 50 52 51 59 65 70 70 71 68 75 72 69 61 67 74 77 69 68
53 51 54 60 63 59 64 63 57 52 46 43 43 45 47 45 46 59 48 41 38 37 41 42 48 48 46 55 50 53 68 78 77 74 77 74 72 69 66 69 73 65 66
53 58 57 62 63 62 59 57 59 53 51 48 44 45 42 44 43 51 54 44 42 35 34 38 43 40 37 49 49 62 63 70 70 76 80 77 76 71 69 69 64 64 66
55 58 65 67 60 58 58 60 53 54 53 45 46 41 46 47 50 50 51 44 51 40 39 38 38 37 33 36 49 62 60 71 76 82 84 82 80 76 72 64 68 71 74
56 64 66 62 60 58 54 56 54 55 56 55 56 58 53 51 60 63 63 65 64 48 38 45 36 39 38 35 43 64 53 67 81 87 90 87 84 85 84 75 63 59 68
58 69 67 63 68 62 60 58 57 59 57 57 61 62 59 55 62 58 57 61 68 74 53 41 40 36 36 37 42 45 52 61 67 90 87 86 83 83 86 90 81 73 63
63 68 66 63 63 60 55 58 55 55 60 55 53 59 59 55 56 58 56 58 58 66 65 40 36 36 36 30 40 42 46 60 65 79 84 84 84 84 85 88 91 87 74
60 61 62 63 61 56 61 65 58 55 55 53 56 61 57 52 48 48 48 45 44 45 55 44 36 38 46 48 43 40 46 49 53 75 82 83 86 88 88 88 91 91 85
60 62 62 62 63 67 68 61 51 47 52 53 53 53 51 45 52 48 49 49 47 47 49 50 44 52 50 52 51 50 46 34 44 57 73 80 84 87 90 90 94 93 93
61 61 60 69 75 69 61 49 51 52 54 52 51 55 55 54 54 52 51 51 52 47 50 62 54 45 48 48 53 54 68 52 39 45 62 73 74 77 85 90 90 92 88
68 68 73 83 70 53 47 50 51 51 50 52 57 58 60 60 57 53 57 67 57 66 59 58 58 51 47 43 56 55 57 47 44 32 40 61 67 70 70 85 89 91 90
66 71 74 65 62 52 45 51 48 52 56 58 58 54 55 61 68 62 55 60 62 65 64 61 56 52 54 48 63 74 64 48 44 44 41 39 43 47 57 69 85 92 91
63 68 61 65 62 46 76 77 69 59 58 53 50 48 46 52 52 64 66 68 67 68 73 68 74 55 48 49 50 72 77 74 57 42 46 40 42 42 46 48 73 92 94
63 70 72 60 57 61 79 80 82 52 49 50 49 47 46 44 57 52 58 63 74 76 75 79 79 59 54 49 55 59 60 62 58 46 50 45 41 44 41 37 65 84 93
69 71 64 58 61 61 75 70 69 55 50 49 48 50 51 52 53 61 72 66 55 50 52 58 69 66 56 53 53 61 63 58 52 47 50 64 42 60 44 45 63 71 87
56 55 57 61 61 56 68 63 60 61 60 57 54 52 55 54 64 74 69 69 56 49 57 61 68 76 79 72 67 67 85 81 77 47 40 52 49 62 62 62 59 60 77
51 54 62 60 60 60 63 61 59 67 76 66 59 54 64 67 73 66 69 72 74 65 58 58 57 55 58 58 70 64 57 78 81 68 43 57 52 51 61 61 65 63 64

GFSMA_sfc_rhum_018.txt.gz
RH
58 46 46 40 39 35 35 35 34 33 33 32 34 34 32 33 33 26 27 69 66 65 64 63 63 63 63 63 66 70 70 69 70 69 74 79 84 87 87 88 87 86 84
72 49 45 39 36 35 34 34 35 31 30 31 30 34 34 32 31 34 27 34 64 63 62 61 60 60 59 59 59 61 62 67 71 70 76 79 83 86 88 90 89 88 87
61 52 52 51 43 40 39 35 34 32 31 28 30 30 30 31 30 34 32 28 32 64 60 61 59 57 58 56 56 57 58 61 63 67 71 77 80 85 88 90 90 89 87
54 56 42 42 44 39 35 35 34 31 31 31 32 28 28 27 27 33 35 35 30 27 47 54 54 53 53 55 55 54 54 57 59 62 66 72 79 80 84 88 89 88 88
48 42 40 43 43 36 38 35 34 37 33 33 30 27 28 28 27 24 36 39 39 37 32 48 52 53 47 47 52 54 53 53 55 59 62 62 68 79 79 84 88 88 87
43 39 40 45 38 35 35 37 42 37 38 38 32 28 31 27 26 30 35 30 30 37 34 36 34 30 51 44 48 49 58 57 56 60 62 63 62 66 79 81 83 87 84
39 40 35 37 39 39 45 45 42 42 38 38 40 30 27 26 34 31 29 30 34 34 37 34 34 32 30 46 45 47 57 56 59 59 59 62 65 64 67 78 81 82 81
35 34 40 38 42 40 44 48 49 43 36 40 49 43 34 28 23 29 30 29 36 33 33 34 38 37 36 33 41 54 53 60 68 63 61 60 65 67 64 65 77 78 80
36 38 41 42 43 42 39 48 48 50 44 39 42 44 45 38 34 29 30 27 36 34 34 32 35 36 37 36 38 43 58 64 66 66 62 62 62 65 67 64 71 78 80
42 38 40 44 46 44 47 47 41 46 43 40 35 29 40 42 43 42 30 31 28 28 34 31 34 32 33 29 39 56 66 66 65 63 62 63 65 64 64 64 66 75 78
41 40 41 44 48 46 48 52 48 45 42 44 40 37 36 33 34 35 36 31 26 24 24 28 30 32 31 29 27 39 62 69 64 62 65 67 68 65 63 67 66 72 76
26 30 35 48 49 49 53 47 46 51 50 42 34 34 34 34 33 34 35 33 32 28 25 27 30 30 30 30 30 48 61 67 67 61 73 76 73 69 68 70 74 71 75
25 28 34 42 47 51 49 49 54 53 42 39 39 34 33 34 32 34 36 35 35 30 29 28 27 26 24 30 32 49 50 56 68 63 81 70 70 71 72 72 67 73 75
30 36 41 44 49 51 52 54 51 44 43 42 42 40 35 34 32 33 37 43 48 38 33 36 27 28 27 27 36 50 34 52 68 65 81 81 80 80 82 84 74 73 69
29 37 48 51 53 57 56 60 47 46 44 44 43 42 37 34 36 34 36 38 54 68 47 37 34 30 28 30 34 35 36 47 62 64 82 82 79 79 81 82 85 82 78
35 38 44 48 54 55 57 54 44 52 43 40 36 38 39 35 35 36 35 38 43 55 62 34 30 32 32 25 34 38 38 50 52 64 82 82 81 81 82 83 83 85 86
37 38 40 45 48 56 54 52 55 59 45 38 39 41 43 40 37 37 38 38 39 38 44 38 32 33 37 39 40 40 41 38 35 70 71 73 82 86 87 87 87 88 89
40 41 44 44 44 46 48 57 58 44 37 38 39 40 40 30 42 41 38 41 39 40 45 48 41 41 43 41 40 43 39 29 31 58 66 68 74 80 84 86 89 90 94
40 43 43 45 46 57 62 55 42 40 40 41 43 45 45 46 46 41 40 40 40 44 53 59 50 44 42 40 43 42 42 46 42 57 66 73 71 73 75 81 88 89 94
44 43 45 47 54 47 41 41 40 42 42 42 48 49 48 46 45 46 43 44 44 56 54 52 49 46 44 38 44 47 56 50 55 41 45 51 56 60 70 73 84 88 91
43 43 45 47 51 52 50 56 46 45 46 46 46 41 39 46 55 55 48 53 53 53 57 55 55 54 53 52 46 42 48 46 48 58 48 39 37 41 46 68 70 83 92
42 44 44 50 57 44 77 78 66 43 43 41 39 37 37 43 46 58 60 61 60 61 66 64 65 64 55 52 51 51 55 73 54 49 56 42 40 36 32 34 72 82 93
45 46 48 55 56 52 79 75 66 42 44 40 39 38 36 32 47 46 53 60 69 76 69 72 65 63 61 59 48 44 47 58 58 48 63 54 39 40 33 27 61 74 95
45 46 47 49 48 52 74 64 63 46 43 40 41 42 42 42 45 56 58 61 47 42 37 38 51 54 58 63 68 60 55 54 52 44 42 58 39 49 45 40 59 58 92
46 44 44 49 52 52 66 61 60 53 51 50 45 42 44 45 59 68 63 54 44 40 44 57 58 62 63 65 66 62 66 63 70 48 35 41 42 52 52 55 53 60 77
44 41 46 53 59 54 63 60 57 58 69 59 49 42 47 58 67 64 67 64 67 50 49 51 51 48 49 52 65 60 54 70 66 65 49 41 42 43 58 50 53 57 60

GFSMA_sfc_rhum_021.txt.gz
RH
63 68 64 48 40 37 36 37 35 34 36 32 32 31 33 32 31 27 28 71 68 62 58 58 58 58 59 60 61 62 64 65 68 71 72 79 80 82 85 86 87 87 87
72 67 66 53 45 41 42 37 38 35 33 31 31 30 32 31 31 33 28 38 71 64 60 57 58 58 58 57 57 58 58 60 63 64 68 72 79 82 84 86 88 88 88
76 64 63 56 45 43 42 36 36 32 29 27 31 29 28 28 27 29 28 31 41 71 62 58 54 54 53 52 54 57 56 55 57 60 64 65 68 77 84 84 87 87 87
57 60 52 47 48 43 36 37 34 34 34 32 32 30 28 26 28 30 26 30 32 31 54 53 48 44 46 46 48 51 52 55 56 55 57 62 66 67 72 83 84 87 87
46 43 40 43 45 36 37 37 37 40 38 37 32 29 32 27 29 21 26 29 38 36 32 46 55 55 41 44 46 50 49 54 56 56 60 62 63 65 67 69 78 84 86
41 39 38 45 41 37 39 43 49 43 41 36 26 32 35 26 25 26 30 28 29 31 33 36 34 34 55 43 45 46 49 54 55 59 61 58 60 62 66 68 67 77 84
37 40 35 37 40 42 45 46 45 48 36 34 34 36 34 36 34 26 24 27 32 28 32 31 32 31 32 49 42 47 52 54 60 62 63 62 60 59 59 65 67 68 78
36 34 43 42 42 42 44 43 44 44 38 36 40 40 41 32 26 28 28 28 37 27 28 32 34 34 34 32 39 45 49 62 62 61 62 62 60 60 60 60 64 67 71
37 39 41 42 43 40 36 42 43 48 42 38 39 39 43 40 37 31 32 28 38 30 33 29 30 30 33 31 34 36 55 62 59 58 61 61 60 58 59 61 61 63 66
40 37 36 40 42 40 43 42 33 45 46 42 39 33 40 42 43 40 28 27 27 26 35 28 26 28 29 29 40 48 58 60 58 57 61 62 61 60 59 60 60 60 62
27 25 26 32 42 42 44 46 48 47 43 47 43 45 38 35 34 34 35 29 25 23 24 26 27 28 27 28 30 38 57 66 53 50 51 61 63 63 61 59 59 59 64
22 25 25 32 36 41 45 44 46 48 52 50 40 39 37 34 33 34 35 37 35 28 25 26 33 29 30 30 30 51 56 62 55 47 49 61 62 67 64 61 63 65 68
25 28 33 37 36 38 41 44 50 56 60 46 43 39 34 35 35 36 36 38 37 32 32 31 30 29 25 34 33 49 46 53 56 54 57 61 64 72 74 75 72 74 73
28 31 34 38 42 40 42 58 52 62 56 52 47 44 42 39 38 38 39 46 50 42 37 40 32 34 32 30 38 51 34 51 54 57 62 62 66 74 74 74 76 80 80
26 30 35 38 40 42 48 62 62 62 51 49 58 52 46 42 40 40 38 37 52 69 52 39 39 34 31 33 38 40 41 49 59 59 59 63 72 78 77 76 76 76 79
33 34 36 36 38 40 55 53 51 50 53 57 56 46 41 42 46 40 35 38 38 54 60 37 34 34 35 28 36 42 42 54 54 60 61 64 76 72 76 80 81 80 79
33 33 34 37 38 38 38 43 48 53 55 56 52 42 46 45 45 40 41 37 38 40 49 41 32 36 41 44 39 42 41 43 41 53 59 62 72 76 78 82 83 84 84
34 33 35 36 35 35 39 45 51 55 54 47 42 45 47 36 45 43 37 39 38 38 39 45 42 45 46 44 44 45 37 30 37 41 66 69 69 73 76 80 81 86 87
35 35 35 38 38 45 54 44 39 40 41 44 47 44 46 47 47 39 40 41 39 33 42 57 57 51 48 43 43 42 38 44 32 51 83 89 81 72 72 77 77 82 86
37 36 37 37 40 39 40 44 45 45 46 44 49 49 46 43 41 47 43 44 42 49 49 53 51 46 44 44 50 54 52 50 45 34 54 92 76 69 73 74 75 79 85
37 35 37 38 38 45 46 50 47 49 47 49 46 41 37 43 47 50 45 50 51 51 52 52 54 59 54 57 62 52 57 50 48 51 66 80 83 54 46 65 64 76 86
35 37 38 39 42 46 81 72 61 45 43 46 44 37 36 45 47 55 56 59 59 58 65 75 65 50 48 53 55 68 68 58 51 53 71 69 68 57 44 36 64 77 87
39 40 40 43 48 53 79 70 62 44 44 43 41 39 36 29 46 43 54 59 61 67 70 66 70 60 66 62 60 69 68 69 61 49 58 72 58 53 45 32 62 65 84
41 42 42 43 46 54 75 64 62 51 46 45 43 42 42 42 48 59 55 53 45 40 38 33 44 50 53 49 49 49 54 51 52 45 46 59 46 52 47 45 56 54 77
43 42 39 42 45 56 71 65 60 52 51 49 45 43 42 41 62 65 59 57 48 44 41 54 50 58 64 65 62 66 70 64 77 51 49 68 53 58 61 61 60 64 71
42 37 38 41 61 57 70 63 58 59 61 57 50 45 54 53 62 62 67 64 68 50 45 46 51 53 53 53 64 60 57 73 70 70 60 80 56 44 58 54 60 67 73

GFSMA_sfc_rhum_024.txt.gz
RH
85 82 81 75 72 65 66 65 60 56 54 50 50 47 45 46 47 49 66 73 71 56 51 53 55 57 58 58 60 60 60 60 62 64 67 70 74 80 86 86 87 87 86
90 77 80 80 74 67 63 63 61 58 56 50 47 49 48 45 45 49 46 70 71 65 56 56 54 53 52 50 51 54 56 58 58 59 60 63 68 71 77 81 86 87 88
84 80 79 76 73 67 62 61 58 55 54 46 48 47 46 43 43 45 48 43 71 74 65 54 47 45 47 47 47 50 52 52 58 59 59 61 65 66 69 73 77 81 87
72 74 71 73 72 70 62 61 62 61 60 59 59 54 52 46 39 39 43 45 57 54 66 58 48 43 45 45 45 48 50 49 52 57 58 62 62 62 64 67 70 73 78
60 66 70 72 67 65 64 63 68 69 67 63 49 45 55 50 47 32 38 41 47 48 46 60 60 55 44 43 45 47 48 52 55 55 58 60 63 63 62 61 65 69 72
57 62 68 64 62 65 67 71 71 68 70 62 36 37 55 56 47 47 41 39 45 44 47 41 48 50 56 45 44 44 48 52 52 55 58 61 61 62 61 61 60 61 66
51 56 64 64 64 66 69 64 65 66 67 63 60 57 56 50 51 43 47 46 46 33 43 48 48 50 46 45 43 44 46 54 56 55 56 57 59 60 60 60 59 60 61
52 51 61 62 65 65 64 66 67 70 67 66 68 61 64 55 49 46 51 45 47 46 43 38 44 44 50 49 47 41 43 53 51 50 52 54 56 59 59 60 59 59 60
51 53 56 60 63 63 65 68 66 67 71 66 62 69 70 70 60 56 48 48 49 53 53 46 38 40 41 47 43 47 52 49 46 49 50 50 51 54 58 59 58 58 59
50 43 45 54 61 66 68 69 53 70 68 70 65 52 64 66 64 58 50 46 45 37 46 54 46 42 41 46 44 55 58 60 50 49 48 50 51 53 57 58 57 57 57
42 39 44 56 59 62 66 69 71 68 68 70 72 68 63 63 58 61 54 52 45 45 43 48 54 51 42 45 50 51 61 66 51 46 47 48 50 52 56 58 60 59 57
44 47 46 56 59 62 64 69 68 66 70 79 77 66 63 62 57 62 62 57 54 50 48 49 52 53 54 51 37 54 59 60 55 45 45 46 48 54 55 58 68 67 68
48 51 52 57 60 63 64 68 72 70 77 84 74 67 62 62 58 59 65 62 64 55 52 53 53 52 38 53 50 55 50 61 61 50 46 48 49 51 57 58 66 67 67
50 49 54 55 57 59 64 67 74 76 80 84 75 74 68 68 61 61 64 73 72 61 56 60 54 54 50 43 53 57 51 58 62 63 59 54 53 52 52 58 63 70 71
37 50 54 55 56 59 63 64 82 82 83 83 80 75 77 71 67 68 70 64 74 77 64 54 57 50 53 51 52 49 52 52 58 60 62 63 59 54 54 59 67 73 73
48 52 53 54 55 57 59 64 71 68 72 80 76 78 80 70 65 72 68 66 60 68 69 52 49 53 52 39 45 50 49 50 56 58 60 60 63 62 59 65 72 74 75
48 48 49 51 52 54 56 60 64 65 69 75 76 79 79 66 71 68 70 63 61 60 62 52 46 52 54 58 52 52 50 48 48 56 59 60 65 66 75 74 72 73 74
49 48 49 49 50 51 58 65 68 63 66 69 64 65 64 47 65 65 65 62 62 55 56 58 57 59 61 57 56 57 45 38 44 47 59 63 76 83 87 82 79 79 79
48 50 49 54 53 56 57 60 61 61 62 62 65 67 64 63 68 66 67 62 59 49 63 67 62 60 60 57 56 56 55 60 47 50 50 68 79 86 93 84 79 80 79
50 52 53 53 57 51 49 54 53 60 64 62 65 64 62 60 61 62 54 63 56 69 65 65 64 62 62 58 64 73 68 63 63 45 52 66 75 85 90 83 79 79 82
49 51 50 54 56 53 53 64 60 64 67 64 63 56 54 53 50 55 51 66 72 76 71 68 69 71 70 65 66 70 83 78 72 64 85 86 78 88 98 84 72 74 78
51 51 52 54 61 50 78 71 63 62 61 61 63 57 53 54 62 62 62 61 66 79 77 82 82 78 71 73 79 78 81 79 80 73 74 80 77 77 85 80 75 78 80
54 56 57 55 57 74 78 68 64 57 64 66 63 60 52 37 69 67 64 61 63 63 64 72 74 74 89 75 69 69 69 73 74 65 66 68 68 67 58 42 67 70 77
57 60 61 58 58 68 79 69 65 63 70 65 63 62 61 60 78 69 73 71 65 59 54 46 62 61 62 64 68 67 72 72 71 65 64 73 68 77 69 71 68 65 74
59 62 56 56 59 77 79 70 62 73 77 70 61 61 59 58 68 62 73 74 68 62 50 53 53 56 64 69 69 74 87 89 90 75 72 80 83 86 87 86 85 64 78
55 58 56 64 66 84 78 69 63 90 83 88 74 66 64 65 59 61 83 85 85 73 66 60 66 67 64 66 68 88 97 94 93 91 76 94 86 96 90 95 95 95 96

GFSMA_sfc_rhum_027.txt.gz
RH
91 85 87 78 80 74 72 69 63 59 56 52 53 50 50 47 48 55 78 70 69 57 52 54 54 53 52 51 52 54 56 56 59 62 62 63 66 69 71 73 76 78 86
91 90 83 82 74 70 66 66 62 64 58 55 53 53 49 50 46 47 60 77 72 68 58 54 50 47 47 47 49 51 52 53 55 59 59 64 65 65 67 69 72 74 76
88 82 83 80 73 72 65 62 65 66 66 59 59 56 54 50 46 44 50 49 78 74 68 52 43 45 44 44 46 48 48 48 51 55 56 59 62 64 65 65 65 68 72
78 81 80 75 72 73 70 71 74 71 72 71 69 60 59 50 51 45 44 46 78 67 73 61 48 45 45 44 45 46 46 50 53 53 57 62 61 61 63 64 63 63 63
72 76 78 71 68 73 78 72 73 77 75 74 51 49 58 61 52 44 47 45 52 65 63 68 62 60 47 46 46 46 47 48 48 55 60 56 56 58 60 62 62 62 62
62 73 71 66 69 74 75 72 71 69 78 69 48 53 68 60 56 58 53 42 48 46 52 46 51 52 54 44 43 42 44 46 48 52 52 53 55 56 58 59 60 61 60
59 68 71 72 72 71 70 68 72 70 70 74 71 65 60 61 49 58 57 54 48 47 50 50 47 48 49 44 39 38 41 46 44 45 47 48 50 52 53 55 58 59 60
60 60 66 68 64 65 65 70 70 74 77 74 69 75 76 67 63 55 60 50 51 54 48 38 42 44 52 49 42 32 34 42 39 41 40 43 46 50 52 53 56 57 57
56 58 60 63 64 67 70 72 74 74 76 70 69 72 80 84 75 62 49 50 52 53 55 53 44 43 46 49 45 46 47 51 44 46 46 45 46 47 50 52 54 55 56
52 46 53 58 62 71 72 78 66 75 76 76 73 64 68 75 72 73 60 52 52 44 53 57 58 50 47 54 53 59 62 60 48 43 44 45 46 47 48 50 52 53 55
44 44 54 57 60 69 70 73 76 78 76 78 84 80 71 68 66 67 70 62 57 53 55 60 61 59 55 52 54 49 64 58 50 42 44 45 47 48 48 48 51 52 53
54 51 47 57 60 66 70 75 80 76 84 87 84 81 77 68 64 69 72 72 69 64 60 59 61 61 62 54 41 55 64 65 57 46 46 48 50 51 50 51 52 54 53
53 52 52 59 61 66 69 75 75 78 83 86 86 82 74 69 67 66 73 75 77 72 70 64 60 61 49 60 58 54 53 62 61 51 50 50 52 52 52 51 53 54 55
52 53 53 57 58 61 66 74 79 81 84 89 86 84 85 77 73 72 70 78 84 77 72 64 67 65 63 62 56 55 59 62 62 61 54 52 50 50 50 52 54 55 54
41 52 53 56 58 60 60 68 80 86 88 90 88 81 80 80 83 79 76 73 82 93 72 67 70 59 65 60 57 60 61 55 61 62 60 57 53 52 52 53 54 54 56
48 51 54 56 58 59 61 65 76 74 76 85 84 86 87 82 81 83 75 73 75 84 90 68 65 62 61 47 50 56 59 54 57 63 62 64 62 56 56 56 60 56 61
49 50 51 54 54 58 63 67 73 68 72 77 76 85 86 84 87 82 74 74 72 71 77 69 63 66 66 68 59 64 60 56 56 58 63 63 63 65 71 71 76 73 66
50 50 52 53 57 60 62 66 69 70 67 68 70 70 70 55 71 74 74 68 66 69 76 75 70 67 70 67 68 68 51 45 55 55 62 63 62 66 78 80 83 83 81
52 52 50 56 58 62 62 66 64 63 65 67 72 73 70 68 73 73 67 68 70 57 76 82 72 71 74 71 65 63 65 68 55 55 57 61 66 68 79 78 80 87 83
54 53 54 58 61 60 59 59 63 69 70 68 68 68 67 64 60 61 56 63 62 76 77 81 73 69 69 67 73 78 80 82 77 55 61 66 72 65 66 80 86 85 81
51 52 55 58 59 64 58 66 60 64 65 67 69 62 60 54 53 56 55 68 76 81 85 81 76 76 77 78 79 89 84 76 68 69 71 81 73 78 81 87 92 89 86
54 57 57 59 67 55 77 70 63 61 61 65 68 65 59 62 65 65 64 63 70 85 90 93 82 81 75 82 93 92 81 78 76 70 83 72 74 74 67 78 82 95 86
55 58 61 60 62 73 78 70 66 60 63 74 70 65 58 59 71 68 65 63 65 62 63 80 77 76 75 73 77 76 77 85 85 72 76 80 75 74 65 50 68 72 75
59 61 64 63 68 70 81 74 68 63 72 74 68 66 66 75 75 70 73 75 74 71 65 57 71 67 68 69 77 74 77 78 79 77 80 87 76 80 83 74 72 70 72
63 65 62 65 71 81 81 74 66 75 78 77 71 69 69 72 65 60 74 77 78 74 58 58 60 66 69 71 68 80 91 96 93 79 81 87 83 96 94 91 90 69 73
62 64 58 66 76 83 82 76 69 94 83 92 80 74 67 69 61 62 86 85 90 74 74 71 71 72 73 75 73 82 84 95 93 95 79 95 85 95 97 96 92 95 96

GFSMA_sfc_rhum_030.txt.gz
RH
92 88 85 81 75 73 71 67 65 59 58 54 56 53 53 55 49 58 75 74 69 59 48 54 55 52 52 52 53 54 54 53 55 58 60 62 64 65 66 67 68 69 72
93 88 84 79 73 69 68 66 67 67 68 64 62 58 58 51 48 49 58 68 76 69 58 54 49 49 47 49 51 50 50 50 53 56 56 60 62 63 64 65 66 66 67
85 87 84 77 75 73 68 72 72 72 72 64 61 57 56 53 52 48 53 53 76 75 71 53 43 47 44 44 46 45 48 53 52 51 60 59 58 60 61 63 64 64 64
85 86 77 74 76 78 78 78 78 75 75 75 62 56 60 59 52 50 47 55 73 77 77 60 50 46 44 44 45 44 46 48 48 53 58 55 53 55 59 60 61 61 62
80 77 75 76 80 81 80 75 77 76 79 69 58 60 70 64 59 47 48 49 52 61 75 59 56 55 45 44 43 44 45 46 46 49 49 50 53 54 54 56 57 58 60
76 78 78 81 77 74 71 71 67 70 75 75 53 53 64 64 60 63 57 44 50 58 54 49 56 57 52 38 38 38 40 41 45 44 44 47 48 49 50 52 55 56 58
69 73 78 73 71 67 68 70 72 71 72 77 68 67 66 65 62 64 58 54 50 50 52 53 56 56 55 42 36 34 36 37 41 38 40 41 43 46 49 50 52 54 56
68 68 72 69 66 65 67 70 73 75 83 75 70 80 76 72 66 56 55 54 53 52 48 44 49 46 56 50 50 44 42 35 37 39 41 42 43 45 47 48 49 51 54
63 65 68 70 73 74 74 74 75 76 76 76 75 72 80 84 80 68 55 56 53 55 57 54 52 48 52 57 62 60 51 51 42 41 43 44 45 45 46 47 48 49 51
56 55 58 62 65 69 68 77 74 81 83 80 78 68 73 73 74 78 64 57 56 48 59 62 60 54 54 55 47 49 58 59 44 40 42 45 46 47 48 48 48 48 50
56 55 57 60 67 74 72 74 79 86 84 83 87 85 79 75 73 75 72 64 63 60 61 64 64 64 58 56 56 50 60 64 51 44 44 45 48 49 50 50 50 50 51
61 55 56 63 64 68 74 78 83 81 86 88 88 79 76 72 69 72 78 77 76 68 64 63 63 64 64 64 51 55 62 62 50 48 48 49 50 51 52 52 52 52 51
55 51 58 58 63 66 69 78 80 82 86 89 87 87 82 76 73 71 76 81 81 76 73 70 64 65 55 69 68 56 54 58 55 52 52 53 52 51 52 52 52 52 53
57 54 55 58 60 61 63 68 80 86 87 91 88 91 88 85 79 75 83 97 98 82 80 69 70 70 74 69 61 54 64 57 54 55 54 52 51 51 51 52 53 53 54
50 55 57 58 57 59 62 69 79 85 90 90 88 89 89 86 90 91 91 94 99 98 87 76 72 66 68 67 63 64 63 57 54 55 56 56 54 54 53 52 53 56 56
51 52 53 53 55 58 63 69 75 75 78 85 86 87 90 92 88 89 88 77 78 86 96 77 70 68 66 50 54 58 65 55 58 59 60 57 58 58 57 55 58 60 62
50 52 55 53 54 58 63 70 74 72 71 79 77 84 89 88 93 94 87 74 68 66 75 74 71 72 72 74 66 69 64 63 64 59 56 58 61 62 63 60 61 68 73
55 56 57 54 55 57 62 70 76 70 65 67 71 72 72 67 73 75 72 65 65 67 73 78 76 74 73 72 70 75 59 50 67 58 58 57 57 62 68 71 77 75 74
57 58 56 56 58 61 62 65 73 72 69 70 71 73 71 70 72 71 67 66 70 58 76 82 78 76 76 73 71 71 73 74 63 57 54 53 55 67 64 62 63 77 79
58 59 59 60 64 63 61 62 66 70 71 71 73 70 68 67 63 64 61 64 65 76 78 82 79 76 77 70 81 84 80 79 71 51 55 58 58 65 58 63 63 77 86
57 58 62 64 66 65 65 69 65 69 68 67 68 58 60 58 58 60 59 70 76 81 84 86 83 80 77 78 84 82 92 73 66 65 69 78 73 74 77 69 64 75 73
50 56 60 68 68 63 74 80 71 68 63 65 68 64 60 61 66 67 66 66 68 79 84 95 90 83 81 75 80 81 83 81 84 75 86 78 76 78 75 79 66 69 68
60 61 66 68 69 73 83 76 72 63 66 73 73 66 60 61 71 67 63 61 63 58 58 86 87 84 78 71 72 81 84 87 89 77 79 89 83 85 71 56 65 66 71
66 66 67 69 71 73 84 79 72 67 70 75 73 69 70 71 74 70 71 72 70 70 67 61 78 76 73 76 80 81 92 93 85 82 83 94 80 84 78 78 75 75 76
67 68 67 73 72 82 84 79 71 71 77 77 73 72 72 74 72 64 73 75 74 72 55 59 61 65 66 68 72 85 92 94 91 80 78 91 88 95 97 94 89 76 81
68 73 74 75 76 82 86 81 73 89 83 89 83 75 68 71 70 66 86 86 89 70 70 75 72 70 72 75 72 83 86 96 94 90 79 96 92 94 97 96 95 98 92

GFSMA_sfc_rhum_033.txt.gz
RH
92 87 84 80 78 73 71 70 65 64 64 62 61 58 54 52 52 58 68 62 73 62 48 52 55 52 53 54 54 53 53 54 56 57 60 63 64 64 64 65 65 66 67
93 87 82 79 76 72 70 71 71 73 72 66 59 60 55 58 52 55 59 64 68 71 61 52 50 49 48 50 50 48 50 55 54 53 60 59 57 60 61 61 63 63 64
90 86 84 80 79 73 75 75 76 75 75 63 56 57 59 59 52 52 56 62 91 81 69 53 45 46 43 45 44 44 48 48 50 60 59 55 54 54 56 58 59 60 61
88 84 78 80 82 80 79 80 76 75 79 67 62 64 68 59 56 52 51 54 68 84 75 61 49 47 45 44 44 43 45 47 48 48 52 50 52 53 54 54 55 57 58
82 78 79 84 80 78 78 71 76 75 73 70 61 65 73 66 61 46 48 52 62 71 62 52 54 53 42 40 39 39 40 43 44 48 47 47 48 48 49 52 52 54 55
78 78 82 81 76 73 73 72 66 74 78 79 56 57 66 66 65 64 55 46 52 54 55 53 61 56 56 42 39 38 38 38 39 42 41 43 43 44 46 49 50 50 52
76 77 79 76 75 70 72 69 74 72 78 77 70 70 71 69 65 63 58 54 50 50 49 51 57 58 56 51 50 41 39 38 38 40 40 41 41 43 45 47 48 49 49
74 73 74 74 72 73 73 76 75 79 85 77 75 82 77 71 69 63 61 54 53 54 50 50 51 51 57 58 61 45 47 44 42 42 42 42 44 45 45 45 46 48 48
69 72 74 77 77 77 78 81 81 78 77 76 76 73 82 84 84 71 62 57 54 59 59 56 52 52 54 57 57 55 42 42 39 40 42 44 44 45 46 48 48 48 49
67 60 62 67 71 74 73 76 76 85 86 83 83 73 76 77 79 80 68 61 60 52 60 65 61 56 56 58 50 50 54 58 44 42 44 44 45 47 48 49 49 49 50
62 58 62 65 67 76 76 77 83 86 91 87 86 89 86 84 79 81 81 67 65 64 64 67 65 66 59 61 63 58 59 67 57 50 48 48 49 50 51 51 51 51 51
64 64 58 64 64 68 67 79 83 82 86 89 91 91 88 85 79 73 77 80 78 71 68 67 65 64 66 69 58 61 58 60 56 54 54 54 54 55 55 54 53 52 53
61 60 58 62 64 60 60 69 81 82 86 91 89 90 88 83 79 77 80 85 86 80 70 70 68 66 59 75 68 57 58 58 57 56 55 56 56 55 54 52 53 56 55
58 57 59 60 57 56 58 67 75 79 89 93 90 92 93 91 86 81 86 95 95 87 76 67 68 66 66 67 63 56 67 58 55 55 56 55 54 53 54 54 55 55 56
54 58 58 57 58 58 62 69 80 81 92 92 92 90 91 90 91 93 94 94 100 96 96 73 69 66 69 68 63 63 69 60 57 55 55 56 57 56 56 56 56 56 56
58 58 58 56 58 58 62 70 76 76 76 84 86 87 89 93 95 96 95 91 98 99 99 84 72 69 69 54 57 64 69 60 62 60 58 58 56 59 61 59 59 58 57
54 54 56 59 58 60 62 69 72 76 78 80 83 84 87 90 95 95 95 82 78 79 87 73 73 73 72 72 68 75 72 73 74 61 60 59 59 58 58 61 64 64 62
56 59 61 61 61 61 62 69 73 73 77 74 75 77 78 78 91 83 80 71 70 69 71 72 76 75 74 71 74 78 64 56 71 64 60 56 56 55 55 58 69 65 65
62 62 63 62 62 63 63 68 73 78 78 75 76 76 75 75 78 81 74 72 71 59 74 82 79 78 79 76 73 75 77 76 66 59 55 55 58 60 60 61 64 62 62
62 62 61 62 65 65 66 67 72 77 77 77 78 79 76 76 77 72 67 67 64 75 78 84 80 76 80 74 83 87 74 69 66 53 57 61 62 62 64 66 63 63 62
61 60 60 64 68 68 65 74 72 76 77 76 75 70 68 62 59 63 62 67 75 82 85 85 80 81 82 79 84 71 73 72 73 70 72 72 76 76 78 75 71 67 65
63 62 66 69 72 64 74 82 78 78 72 73 72 69 62 63 68 68 65 70 75 82 83 90 85 88 80 83 81 82 86 88 87 77 84 82 76 80 76 80 73 69 68
82 79 71 66 69 73 79 84 83 76 74 74 75 69 62 57 73 78 72 66 64 64 64 81 90 85 88 77 78 86 88 89 91 81 88 83 76 82 71 62 68 70 75
88 82 73 72 74 72 81 84 84 72 72 72 77 73 71 70 77 71 72 74 70 69 66 61 75 81 79 79 84 81 93 92 87 80 81 93 76 84 77 78 73 73 75
82 72 72 78 80 80 84 86 84 74 74 75 76 74 73 74 72 72 78 76 76 72 55 59 61 64 67 66 66 84 93 94 90 78 78 88 88 88 86 85 88 70 80
69 77 77 81 84 88 82 87 85 86 82 84 84 81 78 74 72 74 86 88 93 76 66 69 74 73 70 74 66 80 88 95 89 89 84 94 82 90 97 96 98 90 98

GFSMA_sfc_rhum_039.txt.gz
RH
77 66 65 56 52 48 48 49 48 44 46 44 42 41 40 41 39 31 32 73 74 64 57 54 58 56 55 53 51 50 56 50 52 58 57 56 56 56 54 54 55 56 57
74 67 63 56 53 48 49 48 48 45 43 42 44 43 40 36 37 40 33 44 79 72 60 47 58 54 53 49 46 48 51 46 55 57 52 50 52 51 51 52 53 53 55
72 67 68 56 55 56 58 55 53 48 43 39 44 42 37 38 34 38 36 44 46 74 71 56 52 46 46 49 43 43 50 46 44 45 50 49 48 48 47 48 48 50 52
70 69 60 58 59 57 54 53 50 46 44 40 43 39 38 36 37 40 42 48 48 39 58 65 55 49 48 44 42 42 43 43 44 45 46 46 47 45 45 46 46 46 49
68 61 58 62 63 56 56 50 51 47 43 40 37 42 42 37 36 30 37 45 46 39 34 55 59 61 44 38 39 40 42 41 42 42 43 43 44 42 44 44 45 45 45
67 63 62 66 58 53 51 48 52 50 47 45 34 40 45 42 38 36 34 29 34 36 32 35 33 36 50 44 42 41 39 40 41 42 42 42 42 44 44 44 45 46 46
63 64 59 59 55 52 53 55 53 53 49 52 48 45 47 48 46 38 35 32 32 32 36 32 27 25 28 44 42 37 36 38 40 41 42 42 43 43 44 45 46 46 47
61 60 60 56 55 54 59 58 55 52 52 54 45 46 41 45 44 44 40 37 41 33 31 34 37 35 33 28 37 43 42 40 40 41 42 43 44 44 45 45 46 47 48
58 59 60 57 58 55 52 55 55 56 48 56 59 42 41 38 47 47 49 40 45 38 37 36 38 36 37 34 38 40 54 55 50 46 47 47 46 46 47 47 47 48 49
60 55 57 60 56 51 54 53 52 54 56 50 57 50 56 51 43 44 44 44 44 41 44 39 38 40 42 38 48 52 60 64 62 56 51 50 50 50 51 51 50 50 50
60 55 54 55 54 49 56 59 66 68 68 71 49 55 58 55 57 51 44 41 39 38 41 44 46 45 44 43 41 51 61 63 62 61 60 59 58 57 55 54 53 52 51
55 54 49 51 52 52 57 71 84 87 78 58 55 56 49 48 46 49 49 47 49 48 43 40 45 46 45 42 40 54 55 57 59 56 57 58 59 59 58 57 55 54 54
58 58 52 56 51 52 66 82 81 71 62 58 61 54 56 55 53 53 54 50 53 44 48 46 46 46 42 45 46 52 49 55 56 57 56 56 57 58 58 58 57 56 56
58 54 53 52 54 57 59 71 67 59 59 60 63 63 56 57 58 57 54 59 60 49 46 58 46 48 47 46 46 52 39 50 55 56 59 59 59 58 58 58 57 57 56
56 58 57 59 61 67 61 60 57 56 61 65 66 68 63 54 59 57 60 61 70 78 51 45 51 51 47 44 42 43 42 46 55 58 60 61 61 60 60 59 58 58 58
58 58 62 66 60 53 67 53 51 54 59 62 59 63 62 56 58 58 58 62 70 82 80 45 44 48 47 36 37 45 42 50 50 56 62 62 63 63 62 60 60 59 59
55 52 62 62 63 49 49 50 54 54 58 58 61 62 61 60 59 58 65 64 64 71 63 43 44 46 46 42 40 40 38 38 36 50 57 61 61 63 61 59 60 60 60
53 51 58 61 61 49 49 51 53 62 58 58 57 59 59 50 62 61 62 64 59 54 55 50 42 42 44 44 44 43 34 30 38 44 55 61 61 61 62 63 63 64 64
53 64 62 61 54 50 50 56 76 63 56 56 56 58 56 59 59 57 60 57 53 50 50 52 44 39 43 42 41 37 35 41 32 45 49 53 57 62 64 65 66 67 68
62 57 62 66 58 56 61 79 70 60 58 56 60 62 58 59 58 56 54 54 52 52 46 45 41 41 41 40 42 36 39 36 36 34 45 52 59 60 63 65 68 70 70
64 63 62 73 79 81 82 79 66 62 61 60 63 61 62 63 72 65 52 52 49 46 43 43 44 44 43 42 38 39 43 40 41 40 42 42 42 43 44 52 56 62 66
74 76 84 86 90 86 87 86 76 60 60 62 58 58 59 74 74 80 77 69 52 49 51 48 47 47 45 42 39 46 50 49 50 38 44 44 40 42 39 41 55 63 68
85 91 93 90 85 81 88 84 85 62 61 59 59 56 52 47 62 48 67 80 76 71 66 55 57 50 54 40 43 48 46 49 50 43 46 49 42 43 39 37 59 63 69
91 90 83 83 82 78 82 83 86 59 61 62 61 58 57 54 53 52 50 52 52 53 56 52 50 48 42 41 47 52 59 56 45 41 41 54 44 50 45 45 60 62 73
83 85 84 88 77 66 80 81 78 63 64 64 60 59 58 56 63 71 58 58 53 51 56 65 66 67 64 71 66 60 64 61 69 45 40 51 47 52 54 54 51 60 70
83 75 66 65 71 64 74 82 76 68 70 67 64 61 76 62 71 79 70 72 69 50 49 50 48 50 58 53 66 62 50 67 64 63 40 60 53 56 64 46 54 57 62

GFSMA_sfc_rhum_042.txt.gz
RH
49 44 46 42 42 42 41 40 40 38 40 38 36 35 34 32 28 20 21 74 73 62 58 49 59 56 55 52 50 52 49 47 56 54 51 51 52 52 52 52 52 52 53
51 48 51 46 42 39 39 39 38 37 36 36 38 35 31 26 27 29 21 35 72 70 59 51 60 57 54 49 46 47 47 44 52 50 48 49 48 48 48 48 48 48 50
57 55 51 47 44 44 46 45 43 39 34 31 34 29 25 29 26 29 25 26 32 72 71 57 54 50 51 51 44 43 49 46 44 45 48 48 46 46 45 45 46 46 46
59 58 51 48 47 47 42 42 39 36 35 31 30 25 26 27 30 30 28 29 27 24 62 66 57 50 49 45 44 44 46 45 44 44 44 45 46 45 44 45 45 45 46
61 54 49 49 53 46 46 42 40 38 34 28 24 26 29 26 29 21 30 33 35 30 26 62 58 58 50 43 43 43 43 42 42 42 44 44 45 45 44 46 45 46 46
59 53 48 54 49 45 46 41 44 35 31 29 17 23 32 31 29 30 29 23 26 30 26 28 27 32 51 48 45 42 38 40 42 42 44 45 46 47 47 46 45 46 46
56 55 49 54 48 46 45 48 42 43 35 32 33 35 36 39 39 30 29 26 28 28 32 27 25 21 26 42 38 36 36 40 42 42 41 43 44 46 46 46 46 47 47
55 54 53 51 48 46 50 48 44 37 32 36 39 39 40 37 37 36 31 32 36 29 28 28 30 31 30 26 39 44 46 49 45 44 44 45 47 47 48 48 47 48 47
54 53 54 49 50 46 46 47 42 37 38 41 45 42 38 33 31 31 43 35 38 35 32 30 32 33 34 32 35 37 56 54 55 53 52 52 51 51 51 51 51 51 50
56 49 50 51 52 45 45 42 35 41 47 51 63 44 42 33 30 33 36 38 36 34 36 34 32 34 35 35 41 49 60 64 62 60 59 58 57 56 56 55 54 54 53
57 52 52 52 51 43 44 41 48 50 59 68 49 39 41 38 42 40 33 27 28 28 30 33 36 37 36 36 36 52 57 56 58 58 56 56 57 58 58 58 58 56 55
56 58 51 53 49 42 45 46 51 61 66 54 39 36 34 36 33 34 36 36 35 32 30 35 36 34 35 36 38 52 49 54 56 55 54 54 55 55 56 56 57 57 56
67 65 57 53 45 45 45 50 67 61 61 49 45 37 38 36 35 36 38 36 35 31 33 34 35 34 31 36 38 56 50 53 50 54 56 55 55 57 58 59 59 59 57
67 64 59 53 45 45 55 65 68 69 51 49 47 44 36 39 38 37 35 40 46 38 32 36 31 33 34 35 48 50 41 57 52 52 56 56 57 57 58 60 60 59 59
64 63 58 53 52 57 66 67 60 55 45 48 49 49 45 38 39 37 39 40 49 59 40 32 32 32 36 37 42 40 39 48 52 54 53 56 60 60 61 61 61 60 60
59 56 52 51 56 61 60 72 65 45 44 47 45 46 44 37 38 40 39 39 40 46 55 36 31 32 34 30 37 36 37 46 51 54 49 53 59 61 61 62 61 61 60
68 61 54 53 63 62 60 57 52 44 51 65 50 46 46 43 42 40 41 40 40 40 51 38 29 30 38 41 36 34 35 34 29 47 50 51 56 59 63 62 62 62 62
66 59 51 59 54 46 50 57 58 48 72 62 45 44 44 36 46 45 41 43 41 39 39 42 35 33 35 35 37 39 30 23 26 38 46 49 54 55 59 63 65 65 66
68 57 56 61 54 54 55 59 72 82 79 58 49 46 43 45 46 43 42 42 38 32 37 40 38 34 32 30 33 34 33 31 23 36 48 54 48 53 58 61 63 65 67
61 69 71 68 66 57 56 69 79 83 76 68 57 50 47 46 46 46 40 42 39 40 39 39 36 34 30 30 32 32 30 26 27 22 36 47 52 52 58 59 58 60 65
57 66 62 80 70 70 77 72 71 84 78 59 53 47 51 54 64 57 38 41 41 40 39 39 37 33 32 32 33 31 29 30 32 31 30 30 32 32 35 46 49 57 58
70 79 77 85 81 60 92 90 91 87 73 53 50 46 45 62 68 81 82 78 60 45 45 44 39 37 36 34 34 34 34 36 38 30 34 34 32 32 32 32 54 61 60
89 86 81 61 69 73 91 93 95 68 52 49 47 45 40 33 57 51 78 83 78 74 67 50 46 41 42 38 37 34 36 38 40 36 36 37 33 34 31 27 58 63 66
80 73 71 76 70 68 90 93 87 57 50 45 43 44 47 46 45 50 51 50 49 48 55 46 46 41 40 39 37 36 44 45 40 35 34 43 34 38 37 36 54 64 63
69 70 76 83 86 82 88 84 75 53 47 47 42 43 44 45 57 76 57 56 51 53 56 67 69 70 70 62 54 47 57 54 64 37 33 38 38 41 42 44 45 62 66
78 71 60 55 60 57 69 79 73 58 58 56 52 47 66 60 69 82 62 61 63 55 56 49 48 58 67 58 70 58 47 60 56 54 36 46 39 42 53 42 47 49 55

GFSMA_sfc_rhum_048.txt.gz
RH
73 67 67 62 61 61 63 66 65 59 58 53 51 47 40 39 38 45 66 67 66 53 48 58 61 61 59 55 55 55 48 52 52 49 49 52 50 49 49 48 49 49 49
72 69 68 66 65 64 64 63 63 62 61 55 52 42 40 39 37 38 55 67 67 68 57 46 58 62 59 55 51 53 46 49 50 46 48 48 48 48 49 46 47 48 48
69 72 72 71 68 66 65 64 61 63 57 50 48 42 42 36 38 36 40 60 74 74 72 67 61 62 60 55 50 48 51 48 47 45 46 45 46 47 46 46 45 46 48
70 74 75 72 71 71 68 69 66 65 64 56 54 47 43 40 38 37 41 43 53 59 78 71 62 56 53 51 54 48 47 47 48 45 44 44 45 48 49 50 49 49 47
70 75 76 75 74 72 74 68 71 68 63 55 49 48 48 48 45 31 37 40 44 46 65 75 71 65 55 50 47 45 44 44 43 42 43 44 46 47 48 48 50 50 49
73 79 80 77 80 74 74 72 70 65 62 58 31 37 54 54 52 51 47 36 40 40 41 52 74 71 68 56 51 45 38 38 37 39 43 44 45 46 47 48 49 49 49
73 79 81 78 82 75 74 74 72 66 60 55 55 60 64 64 58 56 54 51 44 42 44 43 48 47 66 56 44 35 34 35 37 43 45 47 49 49 49 50 50 51 52
70 73 78 75 79 77 75 76 73 72 70 65 68 71 76 70 68 61 59 51 52 49 46 44 46 41 48 54 56 42 41 41 41 43 47 52 53 54 53 54 52 53 55
72 71 75 78 79 78 80 80 77 73 70 69 65 74 79 77 64 67 66 61 62 62 55 51 44 44 46 50 57 58 58 54 50 48 48 50 53 55 55 55 53 53 52
76 69 70 76 77 82 79 80 70 74 72 75 79 62 64 68 70 69 67 66 64 55 61 64 52 47 47 55 56 69 68 63 56 52 51 54 58 59 57 56 56 55 55
79 77 76 79 83 83 82 79 76 76 74 76 72 74 70 69 74 74 78 66 66 60 59 66 60 59 47 51 70 71 69 65 58 53 54 54 54 56 55 54 53 54 54
80 83 74 81 83 83 82 78 71 70 79 75 71 67 66 64 60 66 69 69 64 56 48 53 61 59 59 57 48 69 67 64 59 57 52 51 53 56 56 56 56 56 56
98 88 81 83 87 82 80 74 76 84 79 82 77 69 66 58 59 58 61 66 64 54 56 57 59 64 49 59 67 68 65 71 66 58 55 52 54 54 54 54 57 58 58
91 88 90 86 88 79 78 83 85 87 86 87 73 72 69 77 69 62 64 67 76 64 60 57 54 54 59 56 68 69 69 72 71 68 57 55 54 50 48 51 56 60 60
92 90 92 85 80 76 78 82 87 83 83 83 72 76 76 72 74 66 65 62 71 87 71 58 59 50 52 57 69 72 66 63 69 70 65 60 53 49 48 49 52 55 58
89 87 84 80 77 73 78 83 85 81 74 74 78 77 78 77 74 70 63 64 67 76 81 62 56 54 50 36 50 59 54 56 61 68 70 68 66 52 48 50 52 52 58
81 80 78 76 72 72 82 83 76 70 69 79 89 91 90 84 75 69 70 68 68 65 69 66 60 56 60 60 49 59 60 58 59 63 68 68 72 64 56 55 53 55 58
79 75 74 73 72 81 81 79 70 63 83 90 92 94 85 66 76 70 74 70 69 67 69 70 65 64 60 58 58 60 47 34 47 49 59 64 66 67 67 65 62 61 61
88 78 76 75 77 79 76 72 77 86 91 91 91 85 83 82 79 75 68 72 68 54 65 74 73 67 67 62 60 58 56 58 43 49 60 65 64 65 64 66 65 67 66
84 81 82 83 79 77 84 83 90 88 86 86 80 82 82 82 79 74 69 72 65 70 67 68 66 71 70 62 64 59 61 62 56 30 43 48 57 56 62 70 69 67 68
83 79 79 80 82 82 78 85 79 83 82 80 84 80 79 80 80 77 64 73 76 75 77 76 75 75 73 70 65 61 58 58 59 57 54 54 57 59 57 56 54 62 65
74 75 78 84 87 72 89 86 82 79 80 84 88 82 82 79 75 80 78 75 68 69 74 78 73 70 72 71 68 66 64 65 68 58 54 62 57 58 52 59 55 61 61
81 85 85 85 82 76 87 89 89 85 88 88 87 86 77 45 62 58 65 73 82 82 79 72 78 74 71 69 84 74 69 69 70 61 60 65 64 62 59 34 57 60 61
83 84 82 76 76 79 91 91 92 89 90 88 81 70 68 64 64 68 70 75 69 68 73 77 86 82 77 75 84 76 70 71 65 62 58 66 65 70 63 62 57 58 60
74 80 82 84 85 82 90 91 93 86 75 76 64 66 68 70 75 79 80 82 72 66 57 68 78 81 77 76 75 85 91 84 91 65 65 68 63 70 68 70 67 58 65
78 73 74 76 68 68 89 84 77 88 89 94 85 71 75 74 81 83 92 92 93 94 97 95 77 87 86 83 77 79 83 93 97 84 63 71 67 72 83 65 73 73 82

GFSMA_sfc_rhum_054.txt.gz
RH
78 75 77 81 77 76 72 72 74 70 60 57 51 43 47 57 59 66 74 70 73 67 62 63 64 64 62 62 57 52 59 55 51 49 53 52 49 48 52 50 49 49 50
81 76 81 76 77 76 71 74 73 68 62 55 45 43 47 53 58 57 65 70 66 64 59 58 64 65 63 59 62 54 50 53 49 46 45 47 49 49 49 49 46 48 49
77 84 92 92 89 79 74 76 74 70 66 58 48 46 45 46 55 59 62 69 74 70 71 67 58 63 65 60 57 58 52 53 51 49 43 43 44 48 52 53 55 54 54
78 85 91 94 95 91 82 77 77 76 71 69 58 53 48 48 44 48 64 68 70 77 77 77 77 73 69 64 58 57 56 55 56 54 43 42 43 46 48 49 50 51 51
81 81 89 92 92 89 83 74 80 75 77 73 61 59 57 54 47 40 54 67 69 80 82 75 75 73 70 64 63 60 57 53 48 47 44 41 44 46 47 49 50 51 50
76 85 88 94 93 90 85 81 77 84 77 73 46 51 60 61 56 56 55 54 61 75 82 81 83 78 72 64 55 53 52 49 43 39 39 44 46 50 51 52 51 50 50
77 82 93 95 95 93 89 84 83 80 72 69 60 63 65 69 68 65 60 58 58 71 79 79 82 77 74 74 57 53 50 41 38 39 46 47 48 48 50 50 51 50 50
83 87 92 94 92 93 87 89 83 82 75 68 62 72 66 75 79 71 70 63 59 56 57 63 64 61 62 86 77 58 46 43 44 49 50 51 48 47 48 50 51 51 52
83 87 91 94 95 94 91 93 88 80 75 72 67 67 81 80 77 74 76 74 65 67 60 56 53 54 62 74 71 69 64 58 52 52 54 53 51 50 48 50 52 53 52
85 84 87 94 96 95 94 93 92 89 81 77 78 69 70 70 69 65 65 74 70 60 69 70 62 56 56 66 66 74 73 71 64 55 54 55 54 50 50 51 52 53 54
86 84 88 95 96 95 93 95 94 92 88 84 77 84 79 78 72 71 78 67 67 71 74 73 68 71 60 64 76 78 76 76 72 59 57 56 55 54 52 51 53 54 55
94 92 88 94 96 95 95 96 96 94 88 83 85 88 91 88 88 92 87 78 71 63 64 67 70 77 74 72 68 73 79 78 74 67 60 59 57 55 53 54 54 54 53
97 94 91 94 94 96 95 95 94 93 87 90 92 93 93 91 86 82 74 71 71 64 62 60 60 74 65 73 81 78 80 80 76 73 67 61 60 56 55 55 52 52 50
88 93 94 95 97 97 96 95 94 91 90 93 92 92 93 92 81 78 75 79 82 76 68 63 62 64 67 76 80 82 86 83 80 77 74 70 63 59 58 56 52 51 48
95 96 95 97 96 95 93 89 89 90 89 93 93 93 90 84 84 82 82 81 89 95 84 76 72 64 66 69 79 90 90 82 82 80 78 77 70 63 61 57 56 50 48
97 96 97 97 96 94 91 87 89 90 89 91 92 93 91 89 89 88 88 87 82 84 85 81 74 72 64 52 66 91 89 79 83 81 81 80 75 72 68 62 59 52 49
98 97 96 96 95 92 92 87 87 87 87 93 93 90 92 92 91 87 88 84 82 82 82 80 82 73 70 67 63 78 80 81 81 84 84 81 77 76 73 73 70 62 54
96 96 95 95 92 90 89 87 85 85 89 91 91 91 93 86 86 86 89 93 94 92 92 89 88 84 79 74 71 72 59 60 68 68 82 78 77 76 79 77 72 72 68
98 98 96 94 89 88 86 85 82 84 90 89 90 90 89 87 86 88 93 96 94 84 85 86 86 88 90 84 76 77 68 68 56 61 72 81 80 79 76 72 76 75 74
96 96 94 90 89 89 86 80 85 90 90 88 90 89 87 87 90 92 93 95 94 97 95 95 91 90 94 89 87 80 79 84 70 52 62 63 73 70 74 77 78 78 78
94 91 91 92 90 87 84 87 84 89 90 92 90 84 86 87 90 91 93 96 97 98 97 96 95 92 93 93 90 86 87 75 80 80 74 66 61 68 66 72 69 73 76
93 89 91 91 92 86 96 92 88 91 89 86 86 86 89 88 90 90 83 83 86 93 94 97 94 94 88 92 93 87 87 94 84 86 82 81 79 77 62 65 60 67 68
95 95 94 91 90 89 96 93 91 86 87 90 93 90 87 74 84 86 87 86 87 85 88 94 95 93 93 92 94 98 98 95 90 82 92 83 86 80 67 46 66 70 71
90 91 91 87 88 90 92 91 92 93 95 94 94 90 90 86 91 84 84 81 73 72 68 62 78 84 88 86 90 85 87 92 94 83 86 95 92 89 64 70 64 66 70
94 94 92 93 92 93 92 93 94 95 93 92 82 82 83 84 74 71 80 80 79 80 67 70 72 75 74 76 82 86 86 87 91 79 96 89 94 90 82 74 71 69 63
91 92 94 93 94 94 98 94 93 95 88 89 81 76 73 77 72 67 81 90 94 91 91 88 82 87 83 84 81 82 87 94 92 97 93 85 98 91 87 77 76 76 77

GFSMA_sfc_rhum_060.txt.gz
RH
83 87 82 77 79 75 75 72 67 63 65 66 72 78 80 85 88 89 90 80 77 69 60 64 67 67 67 64 64 63 58 54 56 56 55 53 53 54 55 52 54 54 54
84 74 79 78 78 74 72 72 66 68 61 55 61 65 66 70 69 71 76 78 76 77 70 62 64 67 67 65 62 63 61 55 52 52 51 53 50 53 56 56 54 53 54
82 82 85 88 87 75 77 79 73 69 64 52 53 56 60 61 61 60 63 67 66 65 68 73 69 67 67 68 63 58 56 58 53 48 45 47 46 54 52 51 50 50 51
79 85 89 87 91 85 83 84 79 74 68 61 56 55 57 61 63 60 62 68 72 64 70 67 70 74 71 65 66 64 60 57 58 56 49 46 47 51 50 49 48 49 49
81 79 84 89 91 92 87 84 87 79 75 72 59 58 57 57 59 53 63 66 70 74 77 76 73 75 77 72 64 61 61 63 61 60 53 48 49 50 50 49 48 49 49
80 82 91 91 93 94 94 91 88 87 80 76 57 55 62 63 61 61 62 62 68 75 77 81 89 88 84 81 71 62 57 58 63 57 52 48 52 52 53 50 46 47 47
88 90 93 94 96 95 93 89 88 86 84 78 70 68 69 68 68 65 63 67 71 73 79 82 85 83 83 81 73 54 48 49 51 52 48 49 53 56 55 48 46 45 46
88 92 94 94 95 96 93 92 88 94 89 82 76 73 69 67 76 71 71 65 70 67 74 79 82 80 77 78 79 62 52 49 50 51 47 50 55 57 55 51 48 45 45
83 88 92 96 96 95 94 95 91 88 92 90 78 82 80 80 77 77 80 75 67 65 66 74 75 75 74 69 67 76 77 74 61 50 49 52 57 58 56 55 51 48 48
82 82 90 93 95 97 95 94 93 92 92 92 87 83 83 80 82 78 78 79 71 64 66 67 66 66 66 68 66 72 82 82 77 62 51 52 57 59 59 58 54 53 52
86 88 91 93 95 97 96 95 96 96 95 95 90 93 89 87 89 91 89 80 74 75 72 69 68 67 65 65 69 67 78 84 83 72 62 54 54 58 60 60 58 56 54
91 91 92 94 95 96 96 96 97 98 97 93 93 92 93 94 93 95 92 88 77 70 63 72 77 75 73 70 61 67 73 79 82 78 71 66 58 55 60 63 62 60 57
94 93 93 95 97 95 95 96 97 97 97 96 96 96 94 87 91 91 92 90 87 74 66 69 68 71 64 73 72 74 74 81 82 82 78 74 71 66 61 60 62 62 58
93 90 93 94 95 94 95 96 97 97 98 97 97 97 94 93 91 91 88 85 86 79 73 69 66 65 66 66 70 74 82 84 85 85 85 80 76 73 70 67 64 62 58
94 92 93 94 95 96 97 98 98 99 99 99 99 96 92 94 91 84 80 81 88 93 89 80 74 67 65 68 69 73 77 78 85 87 89 86 81 77 74 72 70 67 62
94 94 94 95 96 97 98 98 99 99 99 99 98 95 94 94 94 91 88 88 87 90 95 84 76 69 67 62 67 73 76 76 86 88 90 90 88 84 80 77 76 74 69
92 93 94 95 96 97 98 98 99 98 97 98 98 96 94 94 94 94 94 93 93 93 96 86 78 79 78 78 74 74 74 81 84 87 87 87 89 89 87 83 79 78 76
91 89 89 92 95 97 98 98 98 97 96 97 96 94 93 88 93 92 91 90 88 88 90 96 90 87 86 83 82 84 73 65 74 73 82 84 85 86 87 88 86 83 80
87 96 94 94 96 98 98 97 96 96 95 92 92 92 91 91 94 94 92 92 89 82 93 96 95 92 91 89 87 85 83 83 71 68 76 80 81 81 82 84 87 86 83
84 87 95 93 96 98 98 97 96 95 94 94 92 90 90 90 91 89 88 91 90 94 94 93 95 94 93 87 88 89 78 81 80 63 68 72 76 75 76 76 80 83 84
87 85 94 98 98 98 97 97 94 96 94 96 94 93 94 91 91 89 88 95 92 88 86 86 89 92 89 89 85 87 86 77 75 73 74 76 74 75 75 74 73 77 81
93 92 98 98 98 98 100 98 93 94 93 95 98 95 96 96 92 89 87 84 80 85 84 89 88 85 77 81 86 88 88 86 80 71 78 74 72 72 70 72 74 78 77
98 98 98 98 98 97 99 96 96 92 95 96 96 95 85 79 87 82 83 75 68 67 76 83 79 76 82 78 86 89 90 90 88 74 79 83 70 74 66 62 75 78 81
98 98 98 99 98 97 98 98 98 96 97 96 94 86 86 84 81 74 64 60 65 68 71 70 78 79 82 82 88 84 86 87 79 74 81 90 71 75 68 73 81 81 82
99 99 98 98 98 98 98 98 94 93 92 88 84 83 80 75 72 68 61 67 76 78 69 65 66 70 73 74 72 84 83 83 84 71 71 82 77 78 74 77 76 81 80
98 96 98 98 99 98 98 95 90 88 88 83 73 74 78 69 69 75 84 84 80 79 71 65 70 75 72 74 68 77 84 94 89 80 76 88 74 83 81 78 72 77 81

GFSMA_sfc_rhum_063.txt.gz
RH
70 62 61 51 49 53 54 58 56 55 57 57 56 56 59 59 61 53 52 80 75 68 64 64 64 65 64 64 62 60 58 59 59 56 55 55 56 56 54 56 55 55 55
72 65 59 54 53 49 47 50 52 53 50 52 58 56 56 55 58 62 53 57 79 75 69 65 66 67 67 67 65 63 58 53 57 52 57 54 53 57 56 54 51 52 51
71 63 59 57 62 62 56 52 53 50 46 44 50 50 49 51 47 52 51 55 58 76 73 74 68 69 69 67 66 64 63 57 53 50 49 50 51 56 54 52 49 49 48
67 69 65 66 67 66 54 52 51 47 44 40 42 42 42 41 44 44 40 41 42 38 60 70 74 76 72 69 65 61 59 61 58 55 53 52 51 54 53 50 48 47 47
69 65 61 72 70 72 67 58 58 54 50 46 40 41 42 41 46 38 43 48 50 42 36 63 70 77 80 74 69 68 66 61 62 61 60 52 51 54 54 52 49 46 46
71 70 68 75 72 71 74 65 69 63 57 54 38 40 45 43 44 48 44 41 45 50 49 51 47 46 79 80 72 63 59 61 65 65 59 56 53 55 55 55 50 46 44
70 72 74 75 75 74 75 78 77 72 67 65 59 55 52 54 51 42 42 41 46 48 52 49 49 43 48 85 80 66 56 51 51 63 63 53 55 57 58 57 52 48 46
70 69 72 78 75 79 80 78 77 76 67 66 61 57 61 57 52 48 45 45 53 45 47 56 58 70 61 42 52 71 56 50 49 51 54 55 54 58 60 59 54 51 49
73 75 77 85 86 85 87 83 80 78 77 73 63 59 65 64 54 53 57 50 49 48 55 71 68 55 56 62 56 59 79 79 65 53 52 58 54 57 61 61 57 55 52
75 74 81 89 88 86 86 87 83 79 76 73 71 57 65 59 61 65 52 69 73 54 68 63 50 62 67 60 60 63 74 79 80 68 58 52 52 56 60 61 60 59 56
74 72 80 79 84 80 82 82 83 82 78 76 72 73 70 62 69 81 83 80 81 61 72 65 51 56 60 58 51 59 75 79 82 74 69 63 55 52 58 63 63 61 60
82 77 74 79 80 80 81 81 81 82 82 81 82 82 73 86 74 85 87 81 89 83 58 61 66 72 65 57 54 65 72 79 80 76 70 66 63 60 55 54 61 65 67
75 76 74 79 78 76 77 77 81 83 84 89 93 92 89 85 74 80 82 87 89 90 76 56 53 60 56 60 63 72 72 82 82 78 76 74 71 66 64 61 57 56 63
64 66 69 70 71 73 76 79 81 82 85 97 96 95 91 88 84 76 81 87 91 79 65 57 49 60 66 66 69 71 64 80 83 83 83 80 78 77 77 74 70 66 61
68 69 68 68 69 73 76 77 81 83 91 94 93 91 90 87 87 81 81 69 84 91 75 66 54 54 49 60 58 69 55 69 78 82 84 86 83 80 80 80 79 77 74
66 67 68 68 67 70 73 78 82 86 91 94 93 94 93 89 88 85 73 73 74 81 80 62 65 61 61 47 66 60 55 70 74 84 86 85 85 83 83 83 83 80 78
68 68 66 66 66 68 78 86 92 95 96 94 97 97 94 88 90 86 81 73 70 78 82 78 66 66 68 72 65 58 56 56 52 77 84 84 85 86 85 85 85 84 83
69 68 68 70 80 84 88 97 96 97 98 98 98 98 95 91 89 82 83 84 74 83 86 89 76 74 75 62 62 61 49 41 47 58 76 79 80 82 82 84 85 84 84
69 68 67 72 73 76 85 93 94 98 97 94 96 96 93 88 89 92 89 88 82 74 69 79 71 69 76 58 55 55 55 51 38 53 62 69 72 76 74 76 78 78 79
69 70 72 72 75 78 86 94 97 98 98 96 95 93 91 90 92 92 87 90 75 87 88 77 89 78 66 57 56 52 40 36 38 33 46 59 69 67 72 74 75 73 74
68 70 72 71 78 82 91 93 94 94 95 96 95 92 92 90 91 89 88 91 90 88 86 83 78 73 64 52 45 36 45 42 44 46 42 42 42 45 47 56 57 63 69
69 72 78 80 91 97 100 100 98 98 97 97 98 95 94 96 96 95 94 91 79 80 83 79 72 65 52 41 42 50 54 51 45 43 51 48 45 48 45 44 61 70 75
81 85 89 91 95 97 100 100 100 97 96 96 96 97 94 90 92 88 90 86 80 76 72 62 54 47 47 49 63 60 56 56 55 48 54 56 45 49 43 39 66 72 76
90 94 96 98 98 99 100 100 100 96 98 96 95 92 93 93 89 81 71 60 57 60 63 58 59 57 61 61 65 60 61 60 54 49 51 60 45 49 45 46 63 72 77
99 99 99 99 99 99 99 99 96 96 96 95 92 90 87 86 86 74 64 65 64 70 69 64 62 65 70 70 67 60 62 58 67 42 44 52 51 54 48 50 50 69 78
99 98 99 98 99 98 99 96 92 92 94 92 88 86 84 83 87 75 72 64 65 65 58 49 52 56 63 62 67 58 59 73 67 60 52 59 42 48 59 43 48 51 56

GFSMA_sfc_rhum_066.txt.gz
RH
65 58 50 45 44 43 45 44 42 42 42 40 39 39 40 40 42 36 44 79 75 68 63 63 63 62 63 64 63 62 61 59 57 56 56 57 57 55 56 56 55 53 52
66 51 50 44 42 44 42 40 41 39 37 38 41 39 39 40 42 43 40 53 79 75 72 66 66 64 65 66 64 61 58 61 58 58 55 54 57 57 57 52 52 50 48
59 57 46 46 42 39 43 39 42 37 35 35 40 39 37 40 39 42 40 43 56 84 77 74 71 69 68 67 67 66 61 57 59 56 59 56 56 57 56 53 50 47 46
60 60 52 42 41 43 41 41 40 39 38 36 37 35 32 34 37 39 37 39 42 41 72 77 76 76 73 70 68 67 66 62 58 55 54 55 55 58 57 54 51 47 46
61 59 53 50 56 45 43 41 41 42 41 37 34 32 33 31 35 28 33 37 39 34 33 74 78 81 80 75 68 65 63 64 63 61 60 57 56 57 58 56 54 50 47
51 48 46 55 55 52 48 45 50 48 45 41 30 34 38 35 33 34 34 30 34 39 37 35 42 49 84 82 76 70 68 68 65 65 65 62 58 57 59 58 56 52 49
60 57 52 60 58 53 54 56 57 60 55 52 45 44 44 44 42 34 34 34 34 37 40 39 36 33 39 78 80 71 62 58 59 66 69 66 62 60 60 60 59 55 51
69 69 60 58 54 52 60 64 62 61 57 59 52 49 55 52 46 43 37 36 41 35 36 42 40 46 56 40 50 80 66 59 52 51 59 68 67 61 61 61 61 58 54
69 69 67 59 58 57 59 62 63 61 63 62 60 56 54 51 45 44 50 42 43 45 56 51 49 53 56 37 47 62 82 79 66 55 55 61 64 60 60 62 62 61 58
70 65 64 62 70 75 73 67 62 64 75 64 59 52 54 48 47 46 45 48 45 46 64 69 68 67 48 41 55 61 78 82 79 68 61 60 57 60 60 61 63 65 62
72 71 72 70 77 79 74 78 77 73 62 69 55 54 58 55 57 58 53 57 50 56 78 87 64 50 47 44 44 58 75 80 77 69 63 60 59 59 58 58 64 67 67
76 81 77 79 78 77 71 74 67 74 65 67 63 61 61 61 66 64 81 66 68 86 88 83 66 58 48 49 56 67 71 79 78 73 70 67 63 61 60 60 59 58 65
80 77 69 66 68 64 67 73 70 62 63 66 67 67 66 69 77 89 95 85 75 76 70 64 66 52 47 50 53 66 70 81 81 76 74 73 71 69 67 64 63 62 62
64 69 73 67 68 60 56 57 63 57 63 66 69 68 70 79 92 82 87 94 88 65 72 64 51 48 44 48 54 70 48 77 80 78 79 76 75 74 74 72 69 66 64
58 63 65 71 68 55 53 56 58 59 61 70 77 76 81 87 90 86 82 74 79 86 77 60 53 50 43 45 55 50 52 67 72 77 80 81 78 75 75 74 74 73 72
51 52 55 54 52 51 52 55 55 55 59 65 75 81 78 82 87 86 83 81 79 84 87 55 53 49 49 48 60 54 53 68 73 79 83 82 82 79 77 76 74 72 70
52 52 52 51 50 50 50 54 57 56 61 72 83 91 92 93 95 94 93 86 82 78 84 70 56 56 63 66 58 57 54 56 48 79 79 80 80 81 81 82 80 78 74
55 52 52 49 48 48 52 55 58 59 70 88 92 96 97 97 98 97 94 93 88 79 67 81 71 68 74 64 57 59 52 38 38 61 70 74 77 79 80 81 84 80 79
56 54 52 53 52 53 52 55 61 72 92 93 92 94 96 98 97 95 93 92 88 82 82 88 72 75 66 72 66 62 53 47 34 52 56 65 66 69 74 74 75 78 80
57 57 57 56 58 54 52 57 60 80 82 89 92 94 95 96 95 94 95 92 89 91 88 86 87 84 73 65 63 57 48 38 30 19 36 50 59 56 67 72 74 71 72
58 56 58 58 58 59 57 59 57 69 76 85 91 93 92 94 96 92 90 93 91 90 92 84 80 81 75 70 64 46 36 33 32 34 34 35 34 35 38 57 57 65 71
58 58 58 58 61 58 76 93 82 72 81 87 93 94 96 98 98 97 94 91 85 87 87 86 84 83 74 60 49 40 39 39 38 28 41 40 36 37 35 36 55 65 69
61 64 62 58 59 60 100 100 100 90 94 97 98 98 99 98 97 92 95 94 91 87 83 76 79 71 58 45 44 45 45 43 42 36 40 44 38 40 34 27 61 69 74
63 68 68 66 67 67 100 100 100 98 99 98 97 96 94 98 94 91 86 81 75 68 63 51 57 52 52 47 48 46 49 50 47 43 42 53 39 39 35 37 58 68 73
70 74 79 83 89 98 100 100 99 99 99 99 98 94 94 94 96 87 83 82 80 77 78 70 68 71 73 71 65 48 53 52 62 37 34 43 42 43 38 39 39 57 72
91 96 98 98 100 98 100 100 96 96 97 97 95 97 95 94 99 96 96 92 86 69 56 52 59 60 57 56 68 53 45 62 58 53 37 48 41 38 44 36 37 42 44

GFSMA_sfc_rhum_069.txt.gz
RH
73 62 63 54 48 45 46 43 38 38 38 36 36 39 37 37 40 41 50 79 75 69 64 62 63 63 63 63 63 62 60 59 57 58 59 58 56 56 56 56 54 53 51
70 59 64 50 44 41 40 38 38 38 36 36 37 38 38 39 38 44 46 59 79 75 70 63 62 64 64 64 64 63 62 60 58 58 58 59 58 57 56 53 51 49 48
67 62 54 52 44 47 45 41 41 36 34 33 36 36 36 39 38 41 44 49 61 82 78 74 70 66 67 67 65 64 62 64 61 60 59 58 59 59 58 53 50 47 46
59 59 51 47 56 47 43 40 38 35 34 34 36 34 33 37 41 41 39 44 47 47 75 80 78 75 72 69 66 65 63 60 62 60 62 61 59 60 59 56 53 49 46
57 53 50 50 53 45 44 41 40 39 38 35 33 33 34 33 37 32 36 41 45 43 47 78 83 84 80 76 69 67 68 66 62 60 59 60 59 61 61 59 57 53 50
62 58 54 62 54 51 47 46 47 42 41 39 30 33 37 34 33 34 34 32 35 41 38 47 59 64 86 82 76 68 66 66 67 66 64 63 62 61 61 62 59 57 53
54 56 52 63 66 60 59 59 54 58 50 45 40 42 44 44 43 37 35 34 36 38 43 39 41 42 56 84 83 73 68 67 68 68 67 67 66 64 62 63 62 60 58
47 48 53 56 60 59 63 62 64 65 56 58 52 56 61 53 47 46 42 40 48 36 39 43 45 46 44 48 68 82 74 67 62 62 66 73 75 73 69 64 64 62 62
54 54 54 62 64 56 60 67 66 64 72 62 63 69 71 61 63 52 55 45 50 46 43 43 49 49 53 50 58 63 84 82 75 66 62 64 72 73 70 66 65 64 64
62 57 59 67 69 56 60 64 60 64 76 81 65 62 62 58 62 72 51 55 51 48 55 44 42 55 65 57 56 64 86 87 83 73 64 62 61 62 65 66 65 66 66
69 59 74 79 77 70 71 73 74 76 80 79 74 69 59 54 56 58 55 56 55 46 46 50 52 58 58 50 50 58 76 84 82 75 67 62 58 57 57 60 61 64 68
68 67 76 81 77 79 78 78 80 79 79 76 65 63 58 57 56 65 66 68 76 75 83 73 67 65 60 54 54 67 77 80 79 77 70 64 62 60 60 60 61 60 61
78 66 77 75 71 68 68 70 84 74 70 73 70 69 62 65 63 65 69 72 83 87 87 74 69 66 55 55 50 66 76 80 80 78 77 72 70 67 65 64 63 62 62
73 66 68 69 62 64 64 64 67 67 68 80 75 72 66 62 63 65 72 89 89 90 83 76 65 61 59 53 56 76 54 80 81 80 79 79 76 72 70 68 66 66 64
61 66 65 63 61 59 58 58 54 61 69 76 77 75 69 67 70 73 74 81 87 93 78 66 66 57 55 52 60 56 54 78 81 79 79 79 77 74 74 73 72 71 69
62 61 64 63 62 62 60 58 53 57 63 66 67 70 71 68 70 75 80 84 83 91 95 71 67 66 60 45 59 54 52 75 80 81 80 81 80 79 76 74 72 70 68
62 60 62 61 59 58 58 57 56 56 59 61 64 66 69 74 84 90 93 94 96 98 98 93 91 81 70 62 57 58 58 59 55 78 81 82 80 78 78 78 77 73 68
56 55 53 54 52 51 53 54 56 52 56 59 60 64 74 80 84 89 98 98 95 94 95 95 92 85 71 66 68 66 52 44 50 70 80 81 76 76 73 74 76 79 78
53 52 49 51 50 52 52 53 54 55 57 58 59 62 75 86 97 97 97 96 96 96 95 94 95 88 76 79 76 68 70 67 46 72 77 73 71 67 67 73 77 74 75
56 54 52 51 53 50 49 50 50 55 57 57 61 65 77 87 90 92 96 95 96 98 96 96 97 92 89 86 80 77 74 62 51 33 37 40 51 63 72 72 71 72 74
56 54 56 56 55 54 50 55 52 55 57 60 67 72 81 80 87 89 93 96 97 98 98 96 96 94 91 87 81 72 74 65 51 35 35 38 39 42 47 66 66 72 76
58 58 58 58 61 53 68 78 71 60 61 63 72 77 77 93 96 100 100 99 95 97 97 94 92 90 88 84 86 83 66 61 52 39 43 42 40 44 41 41 54 61 62
63 64 62 60 61 61 80 83 85 65 68 76 86 82 91 96 100 98 100 99 97 96 96 90 92 95 95 89 78 69 61 57 54 42 41 50 42 45 41 30 63 69 69
65 66 65 64 63 59 82 90 99 71 69 71 74 85 96 99 99 98 96 90 91 92 87 81 90 92 91 81 66 57 57 53 52 45 44 57 47 54 44 42 57 64 69
62 64 62 65 68 64 99 100 99 94 98 99 99 99 98 99 98 90 90 95 97 98 99 97 97 96 94 87 76 61 66 55 68 46 45 54 49 52 54 52 45 50 63
62 67 86 96 100 98 100 100 100 99 99 98 98 98 97 97 97 94 95 94 95 97 94 94 85 66 59 74 66 56 47 63 63 61 46 52 48 47 54 48 52 53 52

GFSMA_sfc_rhum_072.txt.gz
RH
92 88 65 64 62 62 60 60 61 52 56 52 59 55 51 52 58 62 73 78 74 67 62 64 64 65 65 64 63 62 62 60 62 60 59 58 58 57 57 55 55 54 53
92 92 69 60 64 59 57 57 58 57 57 56 60 55 52 51 56 63 69 81 77 76 67 64 64 64 65 65 65 63 61 60 58 59 60 59 57 58 56 54 52 51 50
91 87 79 64 63 58 58 60 57 59 60 49 55 58 58 56 54 62 66 72 80 82 79 72 68 65 65 66 66 65 64 62 61 60 60 61 60 59 57 54 51 49 48
88 84 74 66 60 59 60 61 60 62 61 59 60 59 58 58 58 60 61 66 68 65 82 82 77 74 71 68 67 67 66 66 64 63 62 61 62 63 61 58 55 52 50
79 72 85 77 70 61 69 58 65 63 64 60 57 60 60 60 62 48 60 62 66 63 71 83 85 83 79 75 69 66 65 64 65 65 64 66 64 63 64 62 59 56 53
71 71 76 74 78 70 70 66 63 64 61 61 35 48 59 61 61 63 58 51 62 63 64 67 79 80 86 81 76 70 68 69 67 66 65 64 64 64 65 65 64 61 58
66 72 77 78 71 70 69 70 71 68 68 67 64 67 64 60 61 58 58 57 53 54 57 72 73 73 78 86 83 75 70 67 69 70 68 67 67 71 69 66 66 65 62
68 69 72 73 75 74 74 74 73 80 76 73 70 72 78 74 68 65 63 56 60 54 54 57 66 66 64 74 82 84 75 68 67 69 73 76 75 75 74 67 66 66 66
64 65 70 72 76 75 75 78 80 78 86 80 76 85 87 88 85 72 66 69 65 70 62 59 61 62 64 69 76 84 87 83 78 74 74 78 79 78 77 74 72 69 67
65 60 64 69 72 73 80 86 84 79 87 86 86 80 87 85 86 96 89 71 74 66 71 72 65 67 64 74 75 75 85 92 87 82 76 72 68 72 75 73 73 73 69
74 67 75 78 76 76 85 88 84 85 84 90 84 91 84 86 86 86 88 86 76 73 73 73 72 72 70 73 74 69 79 84 87 83 80 73 68 66 64 64 64 64 68
81 77 78 81 85 86 85 85 84 84 91 89 83 86 85 80 85 91 94 89 90 84 83 79 70 79 72 74 65 66 78 84 88 87 83 78 71 64 60 59 59 58 60
78 79 74 82 76 79 86 89 91 88 88 90 89 85 78 87 82 87 88 88 91 95 94 94 86 82 66 66 63 73 78 83 80 80 80 78 75 71 66 63 63 63 63
75 74 76 75 74 77 79 82 84 87 87 89 88 83 73 80 84 79 81 93 94 96 96 89 88 79 75 74 76 76 67 80 84 83 83 81 80 80 78 72 66 64 62
68 74 75 77 72 69 71 75 78 78 74 80 82 82 77 80 89 87 88 88 88 94 85 78 93 77 77 72 74 74 65 82 81 82 84 84 83 82 80 78 74 71 69
70 73 73 74 72 68 68 68 68 68 73 75 73 79 76 77 86 88 88 95 94 92 96 85 85 85 79 67 74 76 71 82 83 84 86 86 83 81 81 81 80 74 71
71 68 72 72 69 66 65 67 66 66 68 66 71 75 80 82 86 89 91 94 94 93 97 88 96 95 93 88 83 74 72 76 80 84 83 85 85 84 82 80 78 76 73
70 68 65 67 65 65 66 68 68 62 65 64 64 73 76 76 83 87 93 96 96 93 97 96 91 98 96 91 88 79 72 60 65 78 80 81 84 85 82 79 77 75 74
67 67 65 64 65 65 65 65 65 64 64 64 65 68 68 73 80 87 90 92 93 95 96 96 93 98 97 95 90 82 83 80 64 71 85 86 84 81 80 76 70 72 76
64 64 66 65 65 64 62 62 61 64 64 62 64 68 68 70 73 86 91 93 94 96 96 98 96 98 96 96 89 90 94 88 83 64 71 68 75 78 74 70 70 73 74
63 61 64 64 64 61 58 62 59 62 63 63 64 64 66 69 77 87 92 93 94 96 95 97 98 99 99 99 96 92 93 95 94 87 67 53 57 63 68 76 69 74 73
67 66 66 64 66 56 66 75 67 61 61 62 66 66 68 87 94 97 97 96 91 93 96 97 97 97 96 96 97 98 98 97 97 88 85 76 60 61 54 56 61 68 72
71 72 70 68 68 66 79 81 82 65 68 71 73 73 74 84 95 89 100 100 99 98 100 95 97 99 99 98 98 98 99 99 100 96 84 82 60 60 55 37 63 72 75
72 72 72 71 70 66 85 85 87 78 72 72 74 78 90 93 98 100 99 97 97 97 96 92 95 98 98 99 97 99 100 100 99 90 74 85 64 72 64 64 65 66 74
71 72 71 75 76 74 89 89 92 87 82 97 99 99 99 99 100 97 96 98 98 98 99 99 100 99 99 100 99 99 99 98 98 84 74 85 76 75 72 74 68 60 69
69 70 79 97 99 96 100 100 99 99 99 99 98 98 98 98 97 96 96 94 96 98 96 96 96 96 96 93 90 89 92 95 93 84 69 86 72 74 83 69 73 71 72

GFSMA_sfc_rhum_075.txt.gz
RH
94 89 81 81 86 78 73 69 75 57 57 59 62 59 63 69 71 76 90 78 77 69 65 65 66 66 66 66 66 66 64 62 61 61 61 61 60 59 58 57 56 56 54
90 88 72 72 81 74 63 63 68 64 60 62 63 62 64 68 69 77 86 82 77 68 70 65 65 66 66 65 65 65 64 64 62 61 60 60 60 59 57 56 55 54 52
85 84 70 67 70 69 58 64 68 62 66 62 61 66 60 68 69 73 80 88 79 80 78 72 69 67 67 66 65 64 63 62 62 62 62 61 60 60 57 56 53 52 50
84 81 68 66 69 65 63 66 66 63 66 65 67 68 68 66 71 72 74 79 88 75 81 81 76 73 70 68 68 68 66 65 64 63 63 64 63 61 61 58 55 53 52
80 79 78 78 73 63 75 66 68 64 64 67 64 67 70 73 72 68 74 76 83 80 82 85 84 82 78 74 68 68 67 68 67 66 65 64 64 66 65 63 60 57 55
78 75 88 86 86 78 90 62 62 70 63 61 45 58 68 72 71 72 74 71 75 73 74 76 82 79 86 80 76 70 69 66 66 68 68 68 68 68 67 67 65 63 60
78 77 81 90 94 88 86 69 70 69 73 66 67 72 67 64 65 66 73 72 72 70 76 76 79 80 80 86 82 75 71 69 68 69 68 68 69 73 72 68 69 68 66
76 74 76 82 91 94 92 87 77 85 80 74 67 75 74 70 73 69 70 64 68 66 70 72 78 79 80 83 84 83 76 72 69 70 76 75 75 74 75 74 70 70 69
75 71 72 78 83 82 84 83 80 75 83 80 60 86 94 85 86 76 75 72 66 72 67 67 80 78 79 80 83 86 88 85 80 76 74 79 80 78 77 78 76 73 70
79 74 75 81 77 72 76 88 85 81 88 89 90 86 89 90 93 92 92 78 77 70 76 75 65 71 71 71 76 82 88 93 88 82 79 78 80 83 81 81 80 78 77
77 72 77 80 86 89 91 91 91 89 91 93 85 89 87 90 92 90 86 90 83 82 72 71 68 62 61 63 74 77 87 93 92 88 84 82 80 77 79 80 80 80 78
85 76 84 84 86 91 92 89 93 90 94 91 87 90 88 86 87 92 93 93 92 91 84 74 71 70 72 67 67 74 82 83 88 89 88 86 82 77 74 74 72 68 68
94 90 89 90 90 83 92 88 88 90 95 94 90 86 85 86 86 88 93 93 93 93 93 92 74 67 70 82 74 76 78 79 80 83 85 84 83 80 77 76 71 64 61
80 82 80 86 86 90 85 91 94 91 92 96 93 87 82 84 85 83 84 91 94 95 97 89 96 85 82 83 76 79 68 80 79 83 87 88 86 84 80 77 75 72 68
74 80 84 81 84 81 85 88 86 87 84 89 87 86 85 84 89 85 85 85 81 85 80 92 94 93 85 82 77 75 73 73 83 82 84 85 85 83 82 81 81 78 73
71 77 81 81 80 78 78 80 81 81 85 84 81 85 84 78 90 90 87 87 89 84 89 83 89 92 91 79 79 80 78 80 86 85 86 86 85 85 85 83 81 80 79
67 73 76 80 79 77 72 73 72 76 78 76 77 83 83 82 85 88 89 86 89 91 91 82 86 88 93 88 82 82 79 78 76 87 87 87 88 87 86 84 85 84 82
71 74 76 74 78 78 74 72 70 63 73 73 74 79 79 80 87 85 90 88 90 89 93 90 84 90 97 94 88 89 80 70 79 86 90 92 88 86 86 87 86 84 81
79 76 74 77 74 74 73 72 71 71 69 73 75 79 78 83 86 86 90 90 89 90 92 94 88 86 94 98 99 96 90 84 76 78 91 86 86 86 89 89 85 83 79
73 77 76 75 76 74 70 68 67 70 70 72 74 74 72 71 78 81 86 88 88 93 93 96 94 93 97 98 97 96 99 94 89 72 81 80 90 92 91 91 88 81 75
76 74 75 75 73 70 68 71 68 71 72 73 72 69 70 72 79 76 78 84 89 93 93 95 96 95 99 100 99 96 97 94 99 97 97 95 94 91 89 88 78 81 78
76 75 75 75 76 70 76 83 76 70 68 71 74 72 70 81 82 85 88 88 86 93 92 94 92 95 92 95 96 99 99 99 100 97 98 99 97 97 93 94 88 83 76
79 78 76 75 74 74 85 85 87 71 74 74 74 75 77 78 90 80 95 100 99 98 99 96 97 95 98 98 98 99 99 99 100 99 97 100 98 99 93 82 75 75 77
81 79 79 77 75 72 87 88 88 77 71 71 73 75 80 80 88 93 99 99 98 98 98 98 99 100 100 99 97 98 100 100 100 100 100 98 100 99 87 79 76 76 78
77 78 77 82 84 79 92 89 91 83 81 78 97 98 97 97 99 100 98 98 98 99 98 97 98 98 98 98 98 93 99 98 98 98 99 99 98 94 88 84 75 73 67
78 80 86 96 100 93 100 100 99 94 97 100 99 99 99 99 99 97 98 96 98 98 97 97 97 96 93 95 97 98 98 98 98 97 95 95 82 80 78 77 76 73 77